GFSGL_prec_cthk_000.txt.gz
RH
55 54 52 51 50 49 51 58 64 68 75 84 85 86 89 88 85 84 81 77 74 70 65 61 52 48 46 43 42 42 43 46 48 51 52 55 62 67 68 74 70 57 51
52 50 50 50 51 55 59 64 70 73 76 80 82 85 79 75 72 69 66 60 53 47 42 38 35 33 33 31 31 31 30 31 34 37 37 39 46 52 58 63 67 73 60
51 50 49 52 53 56 60 69 73 76 79 85 82 77 74 69 63 54 47 42 38 34 28 24 24 26 27 29 31 32 32 33 32 34 36 36 33 35 46 55 61 62 59
49 50 50 52 58 59 66 71 78 84 90 86 80 77 69 57 47 40 34 27 24 26 29 32 34 36 36 36 37 37 35 34 32 33 32 36 39 36 35 38 43 52 58
51 52 53 58 65 69 74 77 87 95 88 83 79 69 59 50 36 25 25 28 29 32 33 34 35 37 38 38 39 38 39 36 32 31 30 32 32 36 38 34 35 34 38
56 62 66 71 79 84 89 95 93 92 89 87 73 56 42 30 25 27 31 33 35 36 36 38 43 49 55 57 56 54 53 51 48 47 46 44 41 45 46 45 41 36 35
59 68 75 84 88 92 91 90 91 89 86 72 54 41 29 26 29 32 36 36 36 37 44 56 63 65 67 69 69 67 66 66 67 69 70 68 65 65 63 57 55 49 42
61 68 81 87 92 91 89 86 88 85 67 51 40 31 28 28 29 32 34 36 40 50 65 71 74 77 80 81 81 81 78 77 77 77 76 77 81 83 80 73 65 58 50
66 74 79 90 95 91 89 81 74 61 48 40 33 29 28 28 32 34 39 43 53 70 79 83 84 86 89 93 90 88 87 84 86 83 83 85 86 86 84 83 77 73 61
75 82 92 93 89 82 77 67 56 48 40 33 30 30 30 31 31 39 46 62 76 80 84 86 89 92 93 94 97 95 92 90 92 91 89 85 89 92 89 82 81 78 76
89 94 90 84 76 67 59 54 47 39 34 33 30 31 32 30 36 45 67 81 83 85 86 88 92 95 98 99 97 92 87 89 93 95 94 92 92 93 94 92 87 82 81
90 86 74 65 59 56 51 45 39 37 36 34 33 31 32 35 46 65 84 89 90 89 90 92 92 94 96 98 98 96 95 96 95 95 93 92 92 92 91 93 93 91 90
79 64 56 54 51 48 42 40 41 41 38 36 35 33 33 41 60 83 94 94 94 94 95 93 91 88 93 95 93 92 94 95 96 97 94 93 92 91 91 91 92 92 92
59 53 51 49 46 43 43 45 49 46 42 42 39 37 39 51 79 96 97 97 97 96 95 93 88 84 86 87 86 88 89 89 88 89 86 87 91 92 88 87 85 83 82
54 51 48 46 44 46 52 55 57 56 54 49 43 44 47 72 94 98 98 97 97 95 95 92 85 80 79 80 84 89 92 94 92 92 89 87 86 87 88 87 84 87 86
51 45 43 45 47 51 58 62 69 67 65 57 51 49 56 93 98 98 98 98 98 97 95 93 87 83 81 83 85 87 88 89 87 87 88 87 83 78 82 86 88 93 93
43 44 47 49 55 61 66 74 69 70 69 59 56 56 77 99 98 98 98 98 98 97 97 96 93 86 84 83 81 79 81 85 86 90 91 88 81 83 93 94 97 98 98
50 46 46 57 65 71 80 77 75 71 69 65 59 62 95 98 98 98 98 98 97 97 98 97 95 92 86 83 81 78 83 86 88 92 94 91 89 78 84 98 98 98 97
50 45 56 67 76 82 79 78 80 79 76 70 59 83 98 98 98 98 98 98 98 98 98 98 98 96 93 86 82 79 81 81 84 87 91 95 93 80 75 79 88 91 90
49 55 66 72 78 79 80 83 86 81 76 66 70 98 98 98 98 98 98 98 98 98 98 98 98 98 96 94 91 88 85 83 82 84 87 88 89 90 73 69 69 73 80
54 66 72 78 80 80 84 88 84 79 75 67 94 98 98 98 98 98 98 98 98 98 98 98 98 98 98 96 93 91 89 87 86 86 85 86 86 89 86 73 68 69 71
62 69 77 80 80 85 91 89 84 84 80 80 88 98 98 99 98 98 98 98 98 98 98 98 98 97 97 96 95 94 93 91 89 89 89 89 87 88 89 88 78 70 67
66 74 80 79 83 91 93 89 87 88 92 84 84 97 98 99 99 99 98 98 98 98 97 93 90 89 88 86 82 81 82 85 88 90 90 90 92 90 90 92 90 85 78
69 75 80 82 90 93 94 89 88 92 92 86 80 93 99 99 99 99 99 98 97 90 84 79 74 69 65 62 60 54 51 46 44 42 45 55 72 87 92 92 92 94 95
67 72 80 87 94 96 94 88 88 92 89 82 77 88 99 99 99 99 99 96 87 78 71 67 61 59 58 57 54 53 49 44 35 31 28 24 23 25 27 41 69 90 96
66 74 84 90 93 96 94 87 86 91 89 80 76 83 97 99 99 99 95 89 81 75 70 66 64 62 56 51 47 43 41 36 34 33 31 28 26 30 33 34 36 38 38

GFSGL_prec_cthk_003.txt.gz
RH
53 51 43 38 36 38 43 46 52 56 61 66 71 75 79 76 75 79 75 72 71 70 66 62 59 56 53 51 49 46 46 46 45 45 47 48 51 56 57 62 64 86 81
51 50 46 41 37 40 41 44 53 63 73 78 75 74 76 79 78 72 67 63 58 53 49 47 45 43 41 39 38 37 36 35 37 39 43 42 41 44 49 53 57 64 77
54 52 44 39 38 42 50 55 60 72 81 84 86 87 87 82 75 69 62 55 48 47 43 38 33 31 27 26 27 28 29 30 33 37 39 42 40 38 35 40 45 47 56
52 49 47 47 50 58 65 68 72 81 89 92 93 89 83 76 67 61 54 46 40 34 30 28 28 29 30 31 32 32 33 33 34 34 34 37 38 33 33 31 30 33 35
51 52 56 63 59 67 71 74 83 91 96 94 90 87 81 72 60 51 46 40 36 30 28 27 29 31 33 34 36 36 38 38 39 38 34 35 33 36 33 28 27 23 22
50 52 59 66 74 81 86 89 97 95 96 96 92 86 77 62 53 48 41 34 28 25 24 25 28 32 38 43 47 51 54 55 53 53 48 43 40 39 38 37 33 31 28
58 66 74 83 75 86 91 96 95 94 93 91 86 77 58 51 45 38 32 27 24 24 28 32 37 45 57 62 64 66 67 69 68 67 64 63 62 62 59 54 53 50 44
72 78 81 80 76 87 95 92 89 87 84 76 64 56 49 42 36 31 27 24 23 28 36 46 62 69 74 75 77 79 81 82 81 80 78 73 71 71 72 71 67 63 57
77 84 83 84 81 87 84 81 77 72 67 60 55 46 39 34 31 28 25 24 28 36 56 73 76 77 79 84 87 89 90 89 93 95 87 79 79 80 80 78 78 77 67
75 79 84 88 83 75 69 65 61 59 54 46 41 38 35 32 30 28 29 30 40 59 77 80 82 86 87 92 97 96 94 94 93 93 94 93 91 85 88 88 87 84 80
76 79 80 73 63 59 57 56 50 43 39 39 39 36 34 33 31 32 33 44 62 81 85 86 89 92 94 95 96 97 98 97 96 90 89 89 94 96 94 92 94 91 85
82 78 64 56 55 53 48 43 40 40 42 45 42 38 38 36 36 36 43 63 89 92 91 92 92 92 89 90 96 97 97 97 95 95 97 96 97 96 96 94 95 95 94
77 64 56 53 49 43 39 39 43 47 50 50 48 45 41 38 38 43 59 89 98 97 96 94 93 87 81 84 85 85 86 87 88 92 97 98 97 95 96 95 95 97 98
67 57 51 43 38 41 42 47 51 54 58 59 56 52 49 45 43 56 85 98 98 98 98 98 94 85 80 78 79 82 85 89 92 93 89 87 88 91 96 98 98 99 98
59 49 41 41 46 44 51 59 64 73 71 64 61 59 55 50 55 80 98 98 98 98 99 98 94 87 81 81 83 83 83 85 90 89 84 86 87 89 91 94 96 94 92
43 43 46 45 44 55 62 72 81 77 73 71 67 66 63 55 79 98 98 98 98 98 98 98 96 91 85 80 75 76 81 84 89 91 92 89 90 84 81 84 92 98 94
41 44 45 43 54 65 74 75 73 75 79 77 73 69 65 70 98 98 98 98 98 98 98 98 98 93 87 80 76 77 78 79 83 87 89 89 89 86 77 80 86 90 92
42 46 46 52 65 74 74 76 79 82 81 76 71 69 73 97 98 98 98 98 98 98 98 98 99 98 92 85 80 79 76 77 79 83 86 87 89 89 78 82 92 97 96
44 48 51 62 70 75 76 82 88 87 83 77 70 80 97 98 98 98 98 98 98 98 98 98 98 98 98 94 90 86 83 83 82 82 82 81 85 87 78 76 82 94 95
42 50 59 66 74 74 80 90 89 86 85 80 80 90 98 98 98 98 98 98 98 98 98 98 98 98 99 97 93 90 87 85 84 82 82 81 81 84 79 69 72 72 77
50 56 63 72 76 78 87 90 86 88 90 91 81 87 98 98 98 98 98 98 98 98 98 98 98 98 98 98 97 95 92 90 89 87 84 82 83 83 85 83 69 65 68
54 60 67 73 77 87 91 91 86 89 94 91 81 86 98 99 98 98 98 98 98 98 98 98 96 94 89 86 83 82 84 86 87 87 87 87 86 85 88 87 82 77 71
55 61 67 72 82 88 92 89 84 90 92 85 80 86 99 98 98 98 98 98 98 96 90 83 79 74 67 63 60 53 50 45 44 48 51 59 70 83 87 89 91 91 82
56 60 66 76 83 87 89 86 81 89 89 81 79 87 99 99 99 98 98 97 90 84 77 69 63 61 60 58 56 56 53 48 44 35 34 26 26 32 44 60 77 90 94
59 60 67 75 80 86 88 85 79 84 90 82 79 85 98 99 99 99 98 91 83 78 73 69 65 64 59 55 52 47 45 44 40 34 33 30 30 32 36 38 40 45 54
60 64 66 72 78 83 85 85 82 79 91 92 83 77 85 97 99 98 93 88 81 78 74 71 67 64 58 54 51 43 41 39 36 34 34 33 31 29 32 34 35 36 37

GFSGL_prec_cthk_006.txt.gz
RH
55 56 60 60 50 42 39 39 41 45 47 52 59 66 76 77 78 75 75 79 80 75 71 66 61 57 52 50 50 49 49 48 48 41 42 42 42 45 49 49 49 53 59
57 63 66 61 53 50 44 43 44 51 57 61 73 85 82 81 82 84 82 79 75 70 65 58 53 49 48 46 46 45 44 44 44 40 38 38 37 38 41 43 46 46 49
70 65 59 55 56 57 48 48 52 60 69 79 85 91 94 92 91 88 83 76 66 59 55 53 50 48 45 42 39 37 36 37 36 35 33 32 32 30 31 34 36 39 43
65 58 57 58 58 54 56 54 62 72 83 88 96 98 97 95 90 84 74 65 59 55 53 50 45 41 37 34 31 28 28 28 29 30 29 29 30 27 27 26 24 23 30
62 64 62 64 66 63 63 64 71 85 95 98 98 98 97 94 91 82 68 60 57 52 45 39 34 29 25 25 28 30 34 38 42 43 42 41 40 40 36 30 27 22 18
62 67 69 64 63 68 72 81 90 97 97 96 93 91 90 85 76 69 64 59 51 43 35 28 24 22 26 32 37 44 48 50 52 56 56 55 54 53 50 46 39 34 27
61 60 69 69 67 71 78 84 92 92 89 88 85 79 72 68 64 60 54 46 38 32 26 23 24 29 38 47 55 60 66 70 71 71 71 71 71 68 65 61 55 48 41
57 63 71 75 68 75 82 82 77 73 69 68 65 63 60 55 53 48 42 34 29 26 27 28 36 45 60 66 71 74 76 79 82 84 82 81 83 81 77 71 69 65 61
64 60 66 67 69 74 66 62 59 59 59 56 53 49 45 41 40 35 32 28 28 28 32 42 57 67 77 79 80 83 87 91 95 96 95 92 91 92 90 81 76 74 69
66 69 75 76 65 57 53 53 53 49 43 39 39 42 44 43 41 37 35 33 32 35 44 64 80 84 85 87 91 94 94 95 96 97 98 97 92 91 93 93 89 83 79
73 78 80 67 58 52 49 45 39 38 38 41 42 46 50 50 45 41 40 41 40 46 71 85 88 88 90 93 92 89 93 96 98 97 98 95 90 86 87 91 96 94 88
80 83 71 63 53 45 37 37 39 39 45 47 49 52 57 55 51 46 45 46 50 74 89 94 94 92 94 84 81 82 84 87 91 92 92 94 96 95 95 97 96 98 97
83 77 66 50 39 37 38 38 42 52 57 62 61 57 54 55 53 54 51 53 74 93 99 99 96 97 84 83 81 82 84 88 91 95 96 94 90 90 93 98 98 98 99
80 68 45 38 41 40 39 49 60 66 65 62 63 63 61 62 58 54 55 74 98 98 98 98 98 94 88 84 84 83 84 87 90 93 94 92 93 96 95 92 88 97 99
71 49 38 41 43 40 49 62 68 70 71 71 74 73 72 68 62 60 80 98 98 98 98 98 98 97 90 82 77 79 82 82 84 87 91 95 94 93 95 98 98 97 96
48 40 38 41 46 48 58 66 75 77 84 84 81 75 75 69 68 87 98 98 98 98 98 98 98 99 91 83 79 77 78 79 81 82 83 84 83 83 83 81 81 82 97
38 36 40 44 49 56 64 66 66 84 88 81 78 75 76 80 92 98 98 98 98 98 98 98 98 98 96 88 83 82 80 80 81 81 80 82 82 82 73 67 76 84 88
33 38 42 47 54 63 68 70 81 83 82 83 81 82 83 94 99 98 98 98 98 98 98 98 98 98 98 96 92 87 85 83 82 82 80 81 85 84 78 75 75 82 90
36 38 45 52 59 65 71 82 86 85 85 89 88 76 87 98 98 99 98 98 98 98 98 98 98 98 98 98 98 95 91 87 84 82 81 82 84 86 83 76 74 79 85
37 44 50 54 60 68 79 84 87 84 88 93 87 78 89 97 97 98 98 98 98 98 98 98 98 98 98 98 98 98 96 92 88 85 81 81 82 84 84 82 74 73 72
46 49 51 55 62 72 79 85 85 83 90 90 80 80 95 98 97 98 98 98 98 98 98 98 98 98 92 86 78 76 81 85 84 83 82 79 79 81 84 82 80 74 70
50 51 53 57 65 73 80 82 80 80 89 86 77 83 97 98 98 98 98 98 99 98 94 88 82 75 67 63 58 53 48 44 47 51 56 64 62 65 72 78 84 81 79
48 55 57 60 65 70 78 80 77 77 88 83 78 87 98 98 98 99 98 98 93 89 80 73 68 62 60 59 58 56 53 47 44 39 39 41 44 47 55 61 67 76 83
48 55 60 63 66 71 75 78 74 74 81 89 81 84 96 98 98 99 98 90 87 81 76 70 65 64 60 57 54 50 46 45 41 36 34 38 41 42 42 43 48 55 62
50 55 63 67 70 71 74 77 76 73 75 86 83 78 84 96 98 99 95 89 85 80 77 72 69 66 63 57 54 49 43 42 39 35 35 34 36 38 38 36 37 39 42
51 55 63 70 73 75 74 74 76 74 73 77 83 75 76 77 91 98 99 99 91 85 79 75 72 68 65 60 57 51 45 43 40 37 36 37 37 36 35 33 31 32 34

GFSGL_prec_cthk_009.txt.gz
RH
64 64 67 65 62 55 51 49 48 49 59 61 66 71 78 81 86 85 84 86 87 83 79 76 72 67 65 61 63 62 58 55 58 54 55 55 48 43 42 43 49 46 44
62 63 60 59 56 53 48 48 55 59 60 64 71 75 84 88 91 93 94 92 90 86 79 72 67 62 58 56 56 56 54 54 57 53 48 47 47 45 44 44 45 45 43
62 59 58 56 54 54 58 60 61 65 67 70 77 84 92 96 96 95 92 91 89 82 69 61 59 61 61 58 56 55 52 48 49 49 45 43 42 40 35 35 37 37 32
51 48 55 61 64 67 67 69 69 76 78 82 88 93 95 94 94 92 89 85 79 69 66 64 61 58 55 51 47 43 39 37 37 42 42 39 38 37 37 36 35 35 27
61 64 66 68 72 71 69 71 75 83 85 91 92 92 92 89 85 83 78 71 68 65 60 57 53 48 43 37 36 37 37 39 41 41 41 41 41 43 43 42 40 39 35
65 64 65 68 62 58 61 64 73 80 81 78 76 74 72 70 68 66 64 63 60 58 56 50 44 37 33 32 32 36 41 44 49 55 56 54 53 55 55 53 51 48 42
53 55 49 52 55 60 64 64 62 58 56 56 57 57 56 55 53 52 52 51 50 47 44 40 37 33 34 37 41 45 52 59 63 66 66 68 68 70 71 69 67 64 58
43 49 56 62 63 66 63 59 55 54 54 51 44 39 37 39 41 41 41 40 41 39 36 34 36 37 42 50 57 65 69 72 77 79 78 78 80 82 83 82 80 76 71
48 57 65 67 69 65 60 56 49 40 34 34 34 36 40 40 42 44 42 44 43 40 38 39 43 47 58 70 74 75 79 85 89 90 91 92 92 91 92 94 91 90 85
61 65 73 77 69 66 53 40 35 34 34 34 40 47 50 51 52 49 47 45 42 43 42 44 53 67 77 80 80 84 89 90 90 93 97 96 95 96 97 96 96 94 94
65 75 84 80 73 49 40 38 35 35 39 49 54 59 61 60 55 49 48 50 50 49 49 55 75 83 86 85 88 85 80 81 83 87 91 94 95 95 96 95 90 88 90
73 84 86 75 48 41 42 40 37 47 56 58 58 64 69 69 66 58 58 59 59 56 59 85 88 88 90 92 88 81 81 82 85 88 90 91 92 93 91 93 97 96 94
81 89 77 52 43 41 44 41 51 60 64 63 69 75 78 78 74 73 68 65 62 67 96 98 98 98 97 92 83 83 83 85 86 90 94 96 96 95 97 94 92 92 98
88 81 52 47 43 44 46 51 60 67 67 72 79 82 80 77 73 75 70 69 80 99 98 98 98 98 96 89 85 81 80 80 80 83 86 88 93 95 93 96 98 98 95
85 54 46 44 43 46 49 59 67 71 79 82 82 81 79 82 85 81 80 95 98 98 98 98 98 98 96 88 82 79 78 77 77 76 77 76 76 77 82 87 88 93 98
51 42 42 41 44 48 54 62 75 84 86 84 83 85 86 85 84 92 99 98 98 98 98 98 98 98 97 90 85 82 79 77 74 73 75 77 76 73 67 63 70 77 84
37 37 39 42 45 52 58 65 74 86 88 83 88 91 82 81 95 98 99 98 98 98 98 98 98 98 98 97 93 88 84 80 77 76 76 78 78 77 72 64 69 77 81
37 39 40 46 51 54 61 69 75 79 79 85 93 86 79 91 98 98 99 99 98 98 98 98 98 98 98 99 97 94 90 85 80 79 78 80 80 81 79 76 71 77 84
36 43 50 52 52 57 64 70 75 76 77 88 88 76 82 97 96 97 98 98 98 98 98 98 98 98 98 98 98 98 95 91 86 81 79 79 80 81 81 79 77 76 76
41 47 52 54 56 61 64 68 73 71 76 88 81 79 93 96 93 95 97 99 99 98 98 98 98 97 90 81 71 70 78 82 82 81 77 74 75 75 77 78 78 77 74
42 48 52 57 59 62 65 67 69 67 73 86 78 84 96 98 95 95 97 98 98 97 93 90 86 79 72 65 62 54 50 48 51 56 64 69 70 68 71 75 77 79 81
44 49 53 57 62 64 67 68 68 63 67 80 76 80 95 98 98 98 98 95 91 86 79 75 72 67 64 65 61 58 53 45 43 42 40 44 55 62 66 66 69 74 76
45 52 54 58 64 68 70 70 69 66 63 72 75 76 90 96 98 99 97 91 88 81 76 71 68 65 65 62 58 52 46 44 43 39 37 40 43 45 49 54 56 60 65
50 55 54 58 65 70 72 73 71 70 65 65 73 71 79 93 96 98 98 92 89 83 78 72 70 68 66 62 57 54 47 44 41 37 34 34 38 41 42 44 44 44 49
55 57 54 58 64 70 74 75 74 73 70 69 67 68 69 74 91 97 98 99 97 89 82 78 74 71 67 64 60 56 51 45 42 40 37 34 35 37 38 39 38 38 36
55 54 55 59 64 71 75 76 77 77 75 70 72 65 65 70 75 81 89 94 96 92 86 80 77 74 71 68 65 62 59 54 49 46 42 40 41 41 41 40 40 39 37

GFSGL_prec_cthk_012.txt.gz
RH
63 61 56 52 47 44 44 49 54 57 57 65 71 77 76 79 83 87 87 94 97 96 95 94 90 87 86 82 77 79 77 78 75 73 73 71 70 65 60 54 53 54 59
57 56 52 51 48 47 52 56 63 60 60 62 65 71 78 85 89 92 97 98 96 95 95 93 88 80 76 72 70 73 71 72 70 67 64 63 61 61 63 56 49 49 53
62 59 53 50 53 51 52 51 51 57 63 69 74 81 89 95 98 98 98 97 96 94 91 87 80 75 71 68 66 66 67 65 62 59 54 54 51 46 44 47 45 45 44
57 52 50 46 47 47 50 53 58 64 74 80 88 94 92 88 90 92 92 92 89 85 82 77 72 68 66 66 65 62 60 58 57 58 52 49 49 48 47 48 47 48 47
53 47 41 37 44 50 53 58 62 64 66 68 67 65 63 63 65 61 65 67 71 70 70 70 70 68 60 55 53 50 50 49 51 51 49 46 45 45 45 45 46 48 47
42 39 39 44 50 56 61 62 60 62 63 59 58 57 54 52 44 40 39 43 45 49 50 52 52 49 48 45 43 42 40 40 43 45 45 44 44 49 53 53 53 52 48
37 39 45 51 58 61 65 63 64 65 59 48 39 38 39 39 35 35 35 35 39 41 47 47 46 44 43 45 44 43 42 44 48 52 56 60 61 66 69 67 67 65 62
41 48 52 56 61 68 68 72 67 52 39 38 38 37 39 46 44 44 43 45 47 49 51 49 47 45 44 44 47 47 52 57 63 69 71 74 76 80 80 80 79 77 75
50 52 57 61 70 74 78 68 45 37 35 36 39 48 53 56 55 50 46 49 49 49 49 50 48 48 49 51 56 60 66 73 79 80 84 87 89 93 95 96 95 94 88
46 50 57 70 78 81 63 42 39 38 38 46 54 59 59 58 63 62 60 58 55 55 55 57 54 54 55 61 70 75 78 84 89 85 84 88 93 96 96 95 98 98 98
53 58 68 80 86 64 46 41 41 41 48 55 59 60 64 73 74 74 70 70 69 65 62 60 59 61 72 79 81 85 90 86 83 83 84 85 87 91 98 98 98 98 99
64 71 77 87 74 50 46 43 45 49 57 63 68 78 84 84 84 80 72 75 79 73 65 66 75 86 88 88 91 96 87 83 84 84 86 88 91 93 94 95 97 97 96
71 77 88 88 54 49 45 45 49 58 63 72 80 85 86 89 87 90 90 82 75 72 78 94 98 98 97 98 98 89 85 85 83 84 85 86 87 89 94 97 97 97 99
74 84 92 58 48 46 46 51 58 64 68 78 84 85 90 97 94 91 85 81 85 98 98 99 98 98 98 98 94 88 84 82 79 78 79 78 76 74 76 80 91 98 98
80 91 57 45 46 46 50 56 62 66 72 78 80 88 96 95 85 87 92 98 99 98 98 98 98 98 98 98 91 85 82 79 76 77 79 78 74 70 65 62 67 75 92
85 53 42 42 46 51 57 60 62 66 72 71 80 91 90 83 87 98 98 99 98 98 99 99 98 98 98 99 94 90 84 80 76 76 77 77 72 69 64 62 68 73 77
49 38 39 42 51 56 57 62 66 71 71 75 88 85 80 86 97 98 98 98 98 98 98 98 98 98 98 99 99 96 91 85 81 78 78 76 74 72 70 67 72 72 79
37 34 40 48 53 56 61 63 66 67 72 81 90 81 88 96 94 95 97 98 98 98 98 98 98 98 99 98 99 99 96 91 84 80 78 76 73 72 71 72 72 75 76
40 42 43 48 52 58 62 64 67 66 67 76 87 86 94 97 92 93 95 98 99 98 98 98 98 98 89 80 76 82 88 89 86 82 76 74 74 73 72 70 72 73 74
43 44 44 50 53 58 65 68 69 67 64 69 79 80 91 96 92 90 93 96 98 99 98 99 94 86 80 72 68 62 57 57 62 71 74 72 71 71 72 72 71 72 71
43 44 45 54 55 58 66 71 71 68 63 63 69 73 83 93 95 92 92 93 91 87 84 85 81 77 72 72 70 64 61 54 49 42 45 61 67 67 69 71 71 70 72
42 44 49 56 55 59 66 70 72 70 66 64 64 65 76 88 93 96 95 92 84 79 76 72 72 68 68 66 60 58 59 52 49 41 43 44 47 54 60 64 65 66 71
43 46 53 58 56 58 63 71 73 72 69 66 66 64 65 80 90 94 96 94 88 81 76 72 70 68 66 65 61 57 52 45 42 37 36 42 42 44 47 49 50 51 53
47 50 55 58 57 60 62 70 75 73 71 68 68 68 63 66 80 92 95 97 97 89 83 77 73 72 70 66 63 58 54 49 43 40 37 34 35 39 44 45 45 44 43
48 51 58 57 59 61 66 71 73 71 69 69 69 70 70 63 64 75 88 96 97 96 88 82 78 74 71 68 66 64 61 58 52 46 43 40 38 36 39 47 47 47 45
50 55 56 59 60 62 66 68 71 70 69 70 71 72 72 69 62 64 75 82 87 89 90 88 84 80 78 75 73 71 69 65 61 55 50 48 44 42 42 44 44 50 50

GFSGL_prec_cthk_015.txt.gz
RH
69 68 65 64 59 57 54 53 47 46 41 48 51 59 60 62 69 77 83 90 92 95 97 95 96 96 93 91 91 88 89 87 76 79 80 82 84 85 87 86 84 83 80
69 62 57 55 59 61 53 49 47 42 51 59 62 65 75 79 84 94 96 95 97 98 98 97 96 95 93 91 87 85 82 83 83 71 77 75 74 73 74 74 73 75 73
56 53 56 60 56 46 47 45 46 49 52 59 67 77 85 89 87 81 84 86 89 93 93 94 92 91 88 85 84 82 78 77 74 68 61 62 62 63 61 62 64 64 62
60 58 53 48 45 44 48 51 53 55 61 64 66 66 69 69 66 64 62 57 60 64 71 73 74 75 76 76 76 76 74 71 68 65 60 58 60 60 60 58 56 56 55
53 47 45 44 43 51 53 53 55 60 63 66 68 64 55 47 50 38 35 32 32 37 39 44 48 57 57 58 59 58 61 63 62 63 61 59 62 63 63 64 63 63 61
47 50 50 47 50 54 54 56 57 64 68 66 53 48 49 47 44 37 36 38 40 41 45 44 48 49 52 50 47 46 45 50 51 50 47 48 49 45 48 52 56 58 57
56 55 54 54 56 55 59 60 68 71 64 51 52 50 48 47 49 47 48 48 48 49 53 56 56 55 54 54 54 54 49 45 45 46 46 46 48 49 55 57 59 62 61
62 66 63 56 57 60 65 68 77 69 57 53 51 49 52 57 59 52 51 53 57 64 66 68 64 58 57 55 50 47 48 49 51 56 57 58 63 68 71 71 70 68 67
70 60 61 61 63 66 73 81 73 58 55 53 49 53 56 59 66 68 68 67 74 75 75 73 68 61 56 54 54 52 52 56 65 69 71 72 75 80 84 85 84 84 79
73 64 53 63 69 72 80 87 62 55 54 48 52 58 61 70 78 78 78 76 73 73 71 75 74 68 62 59 58 60 63 75 78 78 85 86 86 84 86 89 92 93 93
75 70 61 79 82 80 89 75 56 55 57 55 57 61 72 80 81 85 86 83 87 86 80 79 79 70 66 70 72 77 82 86 87 90 87 86 86 87 88 90 92 95 96
65 61 72 86 83 92 86 58 58 55 58 59 62 67 77 85 93 93 95 90 89 79 78 77 75 77 86 88 88 89 89 93 89 89 88 87 87 87 89 92 93 94 96
61 70 81 80 92 87 61 58 54 56 58 61 66 70 82 92 95 94 87 88 87 88 93 98 99 98 98 98 99 98 94 92 90 87 84 82 80 79 79 80 83 86 93
75 81 85 96 79 50 57 56 57 57 58 64 65 73 87 92 89 89 89 97 98 99 98 98 99 99 99 99 98 96 93 89 83 80 79 79 79 73 69 68 66 69 77
84 90 88 63 51 48 51 57 57 59 60 61 60 75 84 83 89 90 96 98 99 98 98 99 98 99 99 99 99 94 88 81 79 80 79 78 76 74 67 63 62 64 67
89 81 56 44 43 45 53 56 58 58 60 56 57 73 77 87 91 90 95 98 98 98 98 98 98 99 98 99 98 95 88 81 80 81 81 80 76 73 68 66 67 69 73
72 48 39 40 46 50 52 55 59 63 60 57 58 69 77 91 89 88 94 98 98 98 99 99 99 99 99 98 98 98 96 90 84 82 81 79 76 73 70 66 66 69 72
54 42 46 47 46 50 53 57 62 63 64 64 60 64 74 87 88 87 92 97 98 99 98 99 99 99 93 86 88 97 99 96 90 86 82 78 76 74 73 68 65 67 69
45 44 47 46 45 52 54 58 62 64 66 65 64 62 65 82 87 86 88 94 97 99 99 99 99 94 84 80 72 69 71 77 85 86 81 78 77 74 73 71 68 66 68
48 44 47 46 46 54 56 58 62 65 66 65 66 64 56 71 84 87 87 89 93 94 96 96 92 84 81 77 74 71 68 63 55 60 73 74 73 74 74 73 70 69 69
47 43 47 46 49 57 58 57 60 65 68 65 65 63 57 59 74 85 90 89 88 86 86 83 82 81 80 76 73 68 64 60 52 48 42 49 62 67 68 69 70 71 69
45 44 48 50 54 58 60 60 62 66 68 67 64 64 63 60 62 75 86 91 92 84 76 76 80 76 73 74 72 68 63 58 52 49 42 43 45 47 51 57 59 60 62
47 45 49 53 57 59 61 61 64 67 68 66 64 63 64 65 64 65 76 87 92 92 82 76 74 72 71 68 65 62 57 53 45 42 43 43 42 42 44 46 48 47 49
52 49 50 53 59 61 62 62 64 65 67 67 66 65 66 66 66 68 66 76 90 94 89 86 81 78 74 71 68 66 63 59 55 49 45 51 48 45 44 44 47 49 47
55 55 54 58 61 63 64 64 63 63 66 69 69 69 68 67 68 68 71 71 77 92 90 90 88 84 80 77 74 72 70 67 63 58 54 52 47 45 47 50 45 52 50
62 58 60 60 59 64 64 65 67 66 68 70 71 70 69 69 70 73 75 77 77 78 84 84 85 86 86 84 82 80 78 75 71 66 62 57 53 50 49 50 46 54 54

GFSGL_prec_cthk_018.txt.gz
RH
58 57 57 52 46 44 45 42 38 30 31 33 42 50 55 62 66 71 77 81 85 87 91 97 98 98 99 98 97 94 93 94 86 85 85 87 84 84 92 92 94 92 89
61 57 49 43 46 46 44 39 30 34 38 43 48 51 63 68 71 77 77 72 72 72 70 76 84 89 92 94 92 93 93 92 86 76 74 78 78 80 82 84 86 85 88
57 47 48 45 46 45 43 33 39 45 46 51 55 57 61 62 61 53 47 44 40 39 32 38 44 54 63 69 73 74 80 82 80 75 69 66 65 65 65 63 62 65 67
50 46 43 46 45 41 40 39 50 54 55 54 58 62 58 52 47 45 43 41 39 34 28 31 34 40 44 50 55 59 66 70 69 67 64 61 58 54 55 57 58 57 52
60 55 57 55 58 53 53 46 52 57 56 61 65 58 53 51 53 48 43 43 44 41 41 42 44 47 51 53 55 52 47 46 49 51 54 58 62 67 68 68 71 72 69
72 68 71 61 61 67 53 48 57 59 64 69 65 57 54 53 51 45 47 51 52 52 49 48 52 56 61 66 64 59 50 46 45 50 49 50 51 56 59 61 64 65 65
56 61 72 74 71 72 58 50 62 66 74 79 60 54 51 54 54 53 57 63 67 68 68 70 69 71 74 75 68 63 56 55 53 50 48 45 47 46 48 46 46 50 52
53 58 73 72 92 83 78 61 76 73 87 76 54 53 54 56 62 63 65 72 73 73 73 71 71 70 72 74 70 62 57 54 52 50 51 51 56 55 58 57 59 61 60
53 53 64 59 89 79 83 77 88 81 86 62 57 59 59 59 60 67 76 80 83 84 83 86 84 77 74 72 74 65 59 54 54 55 56 58 63 65 68 70 69 71 67
56 58 61 79 88 93 81 97 87 89 77 52 53 56 58 60 68 81 89 92 91 90 90 93 93 84 76 81 78 69 63 61 58 59 64 69 73 79 85 85 87 86 87
45 51 52 57 71 71 86 90 91 62 57 53 51 54 56 62 79 90 94 92 88 83 86 82 80 81 80 76 73 71 71 74 75 77 78 85 88 87 87 88 88 89 90
49 54 59 70 86 84 94 83 57 54 52 51 53 53 55 70 86 91 91 90 91 95 97 97 97 96 97 96 93 90 88 87 88 91 92 89 90 89 88 86 87 88 90
54 63 69 78 90 93 70 54 50 52 52 55 56 54 52 70 78 89 88 89 96 98 99 99 99 99 99 99 99 99 95 96 96 94 91 88 83 79 78 75 73 72 74
66 73 82 85 79 51 43 49 49 53 56 57 58 52 52 68 80 87 87 92 98 98 99 99 99 99 99 99 99 99 99 96 93 88 82 81 79 76 72 67 62 59 59
75 78 76 59 46 40 42 46 52 53 57 58 58 54 53 66 83 85 86 93 98 99 98 99 98 98 98 98 98 98 95 89 85 84 81 80 78 75 70 64 64 65 67
76 71 57 41 39 40 43 47 51 53 57 57 57 55 53 63 82 86 86 94 98 99 99 99 98 98 98 99 99 97 90 86 84 83 82 80 78 75 70 66 67 67 69
75 58 47 41 43 43 43 47 51 53 57 57 56 55 56 54 77 82 85 92 97 98 99 99 98 98 98 94 98 99 96 91 87 86 84 81 78 77 74 67 66 67 70
67 51 45 44 46 45 45 49 54 54 55 59 59 57 58 53 63 78 82 87 92 97 99 99 99 99 91 84 79 79 88 97 94 91 87 80 79 77 76 73 69 67 69
64 52 47 44 47 48 46 51 56 55 57 61 63 62 59 56 55 66 81 83 87 90 92 98 99 93 85 82 79 76 72 66 67 83 87 82 80 76 76 76 74 72 69
64 54 48 45 48 49 49 54 57 57 59 61 62 60 56 56 56 59 67 81 84 81 81 82 87 88 85 81 77 73 71 66 62 57 63 75 75 71 72 75 76 74 71
62 55 50 47 49 51 53 57 59 59 60 60 61 60 58 57 57 59 62 67 82 81 75 73 77 76 75 76 75 70 65 59 56 49 50 45 49 58 64 66 68 69 69
60 57 52 51 52 54 56 60 61 62 62 60 61 61 60 59 60 59 61 66 69 81 82 76 74 72 71 72 70 67 63 57 52 46 47 44 43 45 48 51 52 53 55
63 60 56 56 58 58 62 60 63 65 63 61 61 62 65 65 63 61 61 63 69 74 82 84 83 80 77 74 72 69 67 64 60 54 48 48 48 43 45 46 48 47 46
68 66 62 58 60 62 63 62 66 65 62 62 63 64 65 66 65 64 63 65 68 72 76 84 88 87 85 80 77 75 73 70 67 62 59 57 51 48 49 48 48 48 48
71 67 65 61 63 62 60 64 65 63 63 66 67 66 66 66 65 64 65 68 71 72 74 75 80 85 87 88 87 83 81 79 75 71 65 62 59 53 50 51 49 52 51
74 69 65 59 56 59 65 66 64 63 65 67 68 66 66 66 66 65 65 67 71 75 77 80 82 87 89 88 85 84 83 82 79 76 73 69 65 61 57 54 53 53 52

GFSGL_prec_cthk_021.txt.gz
RH
57 58 53 43 36 34 34 33 35 35 27 30 34 36 42 46 50 56 60 59 58 58 60 59 52 55 69 87 94 94 95 97 88 79 83 85 85 92 94 92 90 97 89
55 50 41 43 45 46 40 34 38 38 34 32 35 41 47 51 56 56 52 48 44 48 49 48 43 34 32 38 48 59 69 77 81 78 79 80 82 83 88 89 88 90 94
42 41 46 54 60 56 51 50 57 66 48 42 39 43 52 55 53 51 50 45 47 49 49 46 42 35 31 34 42 43 42 43 51 66 69 70 69 70 72 74 75 73 80
44 48 50 54 61 56 64 65 83 80 66 63 54 51 64 52 48 46 45 47 48 46 47 48 48 48 48 49 50 49 48 46 46 46 51 60 61 59 56 59 55 55 55
43 47 49 46 57 61 68 83 80 86 80 74 67 64 73 54 45 46 47 51 51 51 54 57 58 61 66 67 67 59 57 55 51 47 42 43 50 52 54 58 59 59 60
46 47 43 48 60 64 71 90 95 96 89 80 70 76 69 49 52 55 56 55 55 58 61 63 65 70 73 73 73 75 74 68 64 56 51 48 46 51 51 53 58 62 61
48 44 40 44 53 60 67 87 84 97 85 72 79 84 61 54 62 61 57 55 65 74 77 77 75 76 77 75 73 76 76 78 73 64 58 52 50 46 52 53 54 54 56
39 29 30 36 44 51 57 87 97 97 89 74 88 72 57 63 60 55 56 70 81 89 91 89 83 83 90 88 79 71 71 70 70 62 56 47 49 47 55 56 57 61 63
29 34 37 42 44 49 54 63 95 87 82 85 66 57 59 54 52 50 63 81 90 90 89 85 83 89 93 97 94 84 72 73 71 65 61 56 54 55 60 64 62 63 58
37 43 51 50 53 56 64 67 76 80 72 51 53 53 53 51 50 55 78 87 84 87 90 93 95 91 86 83 82 79 77 75 66 60 59 55 56 59 64 67 68 69 71
46 48 48 57 62 72 84 87 73 59 49 52 52 53 52 49 49 65 79 78 81 87 93 96 98 99 98 96 91 84 78 75 74 71 71 73 76 78 79 83 86 87 87
46 45 54 66 75 83 84 66 52 49 50 51 52 52 52 47 49 67 79 80 87 93 97 98 99 99 99 98 99 99 92 88 87 85 85 87 90 92 91 90 90 90 89
43 50 64 71 73 70 52 45 45 48 51 50 51 51 48 48 48 73 80 82 90 97 98 99 99 99 99 99 99 99 96 92 91 94 95 94 94 93 90 86 81 76 74
49 58 66 67 63 50 47 47 43 44 49 51 52 51 49 49 47 71 81 85 93 97 98 98 99 99 99 99 99 99 99 98 98 97 95 90 85 81 77 72 66 60 58
54 62 63 58 46 40 42 42 41 44 50 51 52 52 50 49 48 63 77 82 92 97 98 98 98 98 98 98 98 99 99 97 93 90 87 84 82 77 71 65 65 66 65
59 64 60 48 42 43 44 43 43 46 53 52 52 53 53 51 51 54 76 81 88 94 98 98 98 99 98 97 98 98 95 92 92 90 87 83 80 76 72 67 68 66 65
61 63 59 49 44 44 43 43 40 47 55 53 54 54 54 52 52 53 63 78 82 90 95 98 99 99 92 90 85 88 90 95 93 91 87 84 81 79 76 70 68 67 69
64 63 55 52 46 45 44 47 47 51 53 54 55 55 55 55 54 52 58 65 78 77 81 90 98 96 87 82 82 79 72 71 83 94 91 84 80 79 78 76 73 69 68
66 66 55 53 48 48 47 48 50 56 57 58 58 56 57 59 57 52 57 59 65 75 71 75 82 88 87 82 78 75 74 70 64 64 82 87 83 80 76 77 76 74 72
69 64 57 56 51 50 49 50 53 58 60 60 57 57 58 59 60 57 55 59 62 64 68 69 71 72 76 78 77 71 66 60 58 60 60 65 75 78 73 72 73 73 73
69 63 61 59 55 52 55 55 58 59 61 61 57 57 57 58 60 61 59 57 59 64 66 71 73 71 70 72 73 72 68 61 56 53 51 51 46 51 54 60 63 64 64
61 55 60 61 59 54 58 60 61 59 62 60 60 59 57 58 60 62 63 61 60 61 68 69 75 79 78 78 75 73 71 67 64 57 55 49 41 43 45 46 47 47 48
59 59 64 65 62 59 58 61 60 62 63 59 59 59 58 57 60 62 63 63 63 64 64 71 74 81 87 85 81 79 77 74 71 67 63 58 51 47 49 47 48 47 45
70 68 69 65 64 60 60 59 60 63 61 60 60 62 60 58 60 62 62 62 63 65 66 67 71 73 80 88 90 89 87 84 81 75 70 67 62 58 53 51 54 54 49
80 77 73 69 61 56 55 58 63 63 64 62 64 64 63 61 60 63 64 63 62 62 65 69 74 78 81 85 89 87 86 86 84 82 78 74 69 66 62 59 55 54 52
87 87 83 71 58 54 55 62 65 64 64 66 68 70 70 67 65 65 67 67 66 64 62 67 74 81 88 92 94 94 91 89 88 87 83 78 74 71 69 66 63 61 59

GFSGL_prec_cthk_024.txt.gz
RH
52 52 49 42 36 38 39 40 43 49 53 57 66 67 60 60 58 51 50 44 48 47 48 51 52 55 53 48 42 36 42 65 76 72 74 77 80 85 88 88 93 86 83
50 45 39 39 40 40 43 41 43 50 59 76 84 76 70 76 70 61 51 43 42 45 48 49 46 42 39 38 35 29 30 38 45 48 53 52 65 69 79 86 91 89 89
39 36 40 42 44 49 50 50 50 70 76 92 92 87 79 74 75 61 49 43 42 45 46 47 46 45 44 44 43 40 40 39 42 42 38 38 40 63 68 73 79 78 84
34 36 39 41 49 55 53 58 56 66 74 81 86 88 90 85 73 57 52 45 48 51 51 49 49 50 50 52 55 56 56 54 50 49 44 45 43 38 54 61 60 61 61
40 42 46 52 49 43 38 42 46 50 59 82 95 89 89 82 69 62 44 48 50 49 49 55 62 66 68 70 74 72 72 70 67 63 58 56 50 45 41 54 57 55 54
43 44 42 40 29 27 32 34 38 48 58 78 98 89 87 79 69 52 50 48 45 48 58 72 80 80 77 78 81 79 81 79 75 74 71 66 58 50 48 46 51 55 54
37 34 29 26 29 31 33 37 48 56 63 98 96 94 81 65 52 48 45 45 45 62 76 77 74 78 78 77 84 90 88 85 84 78 74 69 64 56 52 47 47 52 55
30 27 29 32 32 32 41 46 54 70 74 80 82 69 58 52 48 44 43 43 59 75 73 73 78 81 89 89 85 94 97 94 88 76 71 69 64 55 51 47 45 50 54
28 32 34 36 35 40 54 62 69 75 74 63 57 53 49 47 44 42 40 47 68 74 78 82 87 92 95 97 95 85 85 92 90 82 78 74 68 61 56 54 48 53 52
35 36 39 36 39 52 63 74 79 68 57 55 52 49 47 45 44 42 39 58 68 72 83 92 96 98 98 99 99 98 88 85 79 74 70 64 57 54 53 51 50 53 59
38 38 38 40 47 59 67 78 66 52 48 48 50 50 47 46 44 41 41 64 70 79 88 94 96 98 99 98 99 99 98 90 85 82 75 70 67 66 67 67 67 69 72
36 41 42 44 54 61 66 61 50 48 48 48 49 48 48 45 44 42 44 66 73 83 91 95 97 98 98 99 99 99 98 93 90 87 82 80 80 79 78 78 79 82 85
40 46 48 50 58 60 60 51 49 49 46 44 48 50 48 45 45 43 47 64 75 86 93 97 98 98 98 99 99 99 99 98 92 90 89 89 89 90 91 92 92 89 87
46 52 55 53 56 53 48 45 45 45 44 43 50 50 49 47 46 44 48 57 76 85 93 97 98 98 98 99 99 99 99 99 99 99 99 99 96 95 94 88 79 70 65
53 58 59 55 53 50 49 47 45 44 43 45 51 52 51 48 48 48 49 51 70 80 89 95 97 98 97 97 99 99 99 99 99 97 95 90 85 81 77 69 69 68 67
55 60 64 59 52 50 52 49 46 44 45 50 53 54 52 49 49 50 51 53 58 72 77 89 96 97 89 88 87 83 90 96 94 93 91 88 85 81 75 69 69 68 65
56 62 66 63 55 50 51 50 46 47 48 53 55 55 52 51 51 52 51 53 53 55 64 72 88 91 86 82 82 82 77 76 96 96 93 90 86 82 78 72 68 66 65
57 63 68 65 56 52 52 52 49 47 48 54 57 57 53 53 53 54 52 52 55 54 51 63 71 80 83 84 79 75 74 69 68 81 95 90 85 82 79 77 74 71 67
61 66 70 66 61 59 56 54 52 51 52 56 59 58 54 54 54 56 56 54 53 57 55 50 61 67 72 77 77 74 67 62 62 67 67 85 86 82 78 77 78 76 73
67 70 71 64 59 61 60 55 58 56 58 58 61 58 56 54 55 56 57 57 56 56 60 57 53 64 69 71 73 73 72 65 59 60 60 59 67 79 82 77 75 75 75
73 73 67 60 60 62 65 62 63 61 61 60 61 58 58 55 54 55 56 58 58 57 58 64 61 60 67 75 77 75 74 73 68 61 57 50 49 50 50 51 52 59 64
78 73 65 64 67 67 66 64 64 64 60 62 61 60 60 57 56 55 57 58 59 59 58 59 63 66 68 75 83 81 79 77 75 71 66 59 50 44 44 44 43 45 43
82 77 72 70 71 68 67 67 63 60 61 66 62 62 62 61 60 57 57 58 59 60 59 58 60 63 65 68 76 87 89 88 86 80 73 70 65 57 51 48 49 49 45
87 83 81 81 78 73 66 62 60 58 64 66 64 66 66 66 64 62 61 59 59 61 62 58 59 64 69 72 75 78 86 88 88 85 83 78 72 68 63 59 55 52 50
87 87 90 91 91 85 70 59 56 59 64 66 68 68 70 71 70 69 66 66 65 65 66 65 61 61 67 76 81 84 83 88 89 89 87 82 79 75 71 68 65 62 59
91 90 92 95 96 97 90 67 59 60 64 66 66 71 75 78 78 76 74 72 73 72 72 72 70 65 65 71 79 84 87 90 95 96 94 90 88 84 78 75 73 70 67

GFSGL_prec_cthk_027.txt.gz
RH
52 48 42 34 34 36 40 43 46 49 57 60 53 59 76 80 89 78 79 74 68 58 51 45 47 46 44 43 42 41 41 41 39 32 34 38 57 64 67 73 67 72 73
50 41 37 35 36 38 39 42 50 52 51 49 50 54 75 81 84 87 84 77 72 60 57 51 48 47 44 42 42 42 43 44 44 41 36 35 36 38 44 48 64 61 68
40 41 37 36 38 41 41 37 31 30 30 33 42 56 64 75 87 88 79 78 66 58 57 53 48 43 41 43 46 47 51 53 55 54 48 46 43 40 36 34 33 53 58
43 39 37 41 40 36 33 30 27 27 32 40 49 54 66 81 90 88 83 77 55 58 54 48 44 45 55 63 65 67 72 74 75 72 66 62 59 51 43 41 35 32 51
40 37 39 37 32 32 32 31 25 30 39 44 55 69 75 82 84 89 73 54 52 48 45 43 52 67 68 68 68 70 72 73 80 85 80 77 72 68 57 49 44 36 38
37 33 31 31 32 33 31 24 27 36 43 52 66 77 71 73 68 55 52 47 46 43 41 53 63 64 69 75 77 83 83 81 80 85 86 82 78 76 71 60 50 42 36
34 33 34 36 36 34 27 27 34 46 57 64 63 60 55 55 51 49 45 45 41 40 47 60 62 71 79 84 90 92 93 94 86 92 90 86 80 74 71 64 57 48 39
35 36 40 40 34 29 30 35 44 54 62 67 58 51 52 50 48 44 42 39 38 40 59 63 74 83 90 94 96 98 96 96 86 87 94 94 85 75 70 66 58 51 42
36 39 40 33 32 34 37 47 54 62 71 62 53 50 50 51 46 43 38 37 38 48 65 74 85 91 95 97 98 99 98 95 90 81 88 90 82 77 74 71 62 56 46
38 36 35 36 37 38 41 52 62 67 63 54 49 49 49 47 46 41 37 38 39 51 69 83 91 95 98 98 98 98 98 97 96 91 85 83 79 72 68 64 61 54 48
35 38 39 40 39 42 46 54 58 57 54 51 49 49 46 49 46 41 38 40 43 54 70 84 93 96 98 98 99 99 99 98 95 91 88 85 81 75 69 63 60 58 56
38 40 43 43 44 47 50 54 54 53 53 52 48 46 47 50 47 43 40 43 47 52 70 83 94 97 99 99 99 99 98 99 96 91 87 82 80 79 77 76 74 73 73
39 43 46 50 52 52 53 52 52 52 51 47 45 46 49 51 49 44 41 44 47 51 66 80 91 96 97 98 99 99 98 99 99 94 90 89 88 88 87 88 87 85 84
40 45 49 53 58 55 54 50 49 55 51 45 45 47 52 53 50 44 43 45 47 48 56 75 87 95 96 98 99 98 98 99 99 99 99 99 98 98 97 95 94 94 91
40 48 53 58 63 61 59 53 51 55 53 48 48 49 54 54 50 47 46 44 47 48 45 58 80 90 83 84 88 84 88 98 96 96 97 98 97 95 89 81 76 74 72
41 50 56 61 67 68 61 55 53 55 55 51 50 52 57 55 51 49 47 45 48 50 44 43 59 79 84 81 79 82 76 79 98 95 91 87 84 82 78 77 76 72 72
47 53 60 64 70 70 64 59 57 58 59 55 52 56 59 57 53 50 49 48 48 51 48 42 47 57 72 81 80 77 76 70 72 92 96 93 89 85 81 75 74 72 71
53 58 64 69 72 73 62 60 61 56 59 57 57 60 60 59 54 50 49 51 49 50 56 51 46 47 55 70 77 76 71 66 67 71 79 95 91 87 84 79 76 73 72
59 64 69 76 76 73 64 58 60 59 59 59 59 61 62 59 55 51 49 50 51 50 54 58 54 51 51 60 70 76 74 72 65 66 66 65 81 88 85 82 79 77 75
65 70 76 81 75 68 69 67 67 67 62 62 61 61 62 59 56 53 50 49 50 51 50 54 59 57 55 55 62 73 76 75 73 69 62 58 56 62 76 81 76 77 78
71 76 82 82 74 70 69 71 71 72 67 65 64 62 63 60 59 57 53 51 50 50 52 51 53 57 59 61 64 67 77 80 79 76 73 66 53 48 49 46 47 48 51
77 81 87 84 77 74 73 72 70 70 70 64 61 63 64 62 63 62 58 55 53 51 51 51 50 52 55 59 60 65 70 82 87 85 79 75 72 57 48 44 41 44 40
79 84 90 89 86 85 82 77 71 66 66 63 59 65 67 66 67 68 64 61 59 56 54 53 51 53 53 56 61 65 68 72 81 87 86 82 77 73 68 56 46 43 41
81 84 88 90 88 90 93 91 84 70 62 61 61 66 68 69 71 72 71 68 67 65 62 60 59 57 57 57 60 65 70 72 75 82 88 86 82 79 74 71 67 61 55
79 84 88 90 90 94 95 96 97 95 72 62 61 65 70 70 73 77 78 78 76 73 70 68 67 66 63 63 62 62 66 71 77 82 89 92 90 85 80 77 75 72 69
80 83 88 93 95 94 95 97 98 99 98 79 64 65 68 71 75 80 82 84 86 84 81 78 75 74 71 69 67 65 65 68 75 82 86 90 91 89 89 88 84 81 77

GFSGL_prec_cthk_030.txt.gz
RH
64 57 49 44 44 46 44 40 40 40 35 28 29 35 38 46 54 60 60 67 76 77 77 72 60 49 48 50 51 46 44 46 43 37 37 36 37 37 35 34 48 61 57
58 51 47 48 47 44 40 37 36 30 28 26 31 41 45 49 52 56 67 81 80 81 83 59 48 48 45 44 41 43 51 59 61 59 52 47 44 44 50 42 33 30 37
55 53 51 46 41 36 33 31 30 28 25 26 37 45 43 55 60 70 78 82 77 70 52 49 45 42 40 44 58 64 65 64 68 70 61 60 63 62 56 52 44 37 31
55 51 46 41 34 32 31 31 30 27 26 32 38 39 48 57 63 65 65 59 51 49 47 43 41 41 48 60 64 71 75 78 81 82 80 76 72 72 77 67 58 50 38
52 48 41 35 34 34 34 31 28 29 32 38 41 48 59 57 55 49 48 47 45 43 40 37 38 45 61 67 76 81 84 85 89 91 89 87 81 81 89 85 74 63 50
46 40 36 36 37 36 32 31 33 34 37 44 50 54 61 49 43 47 45 45 43 38 34 35 37 56 63 76 84 92 96 97 96 97 96 94 86 87 91 92 84 75 62
42 37 39 40 37 33 34 36 37 36 42 50 56 61 60 45 46 46 44 43 38 35 36 37 46 62 74 83 88 94 97 99 99 98 97 96 88 98 94 89 84 78 66
37 41 40 37 34 36 38 37 39 43 50 59 63 60 49 45 46 43 43 40 36 36 38 40 56 70 83 89 95 97 98 98 99 98 98 93 87 96 98 92 82 72 64
41 38 36 36 36 37 37 37 42 47 55 60 59 54 51 48 45 43 43 40 37 37 40 45 62 77 88 95 97 98 97 98 99 99 99 96 89 95 93 90 82 75 67
38 36 37 38 38 36 37 40 45 50 53 55 54 53 52 47 45 43 46 41 37 38 42 47 63 79 92 96 99 98 98 99 97 96 93 96 92 93 91 81 76 74 70
38 37 37 38 37 39 41 46 49 53 51 53 55 55 49 45 44 46 49 43 39 40 44 47 59 80 91 97 99 99 99 98 99 93 91 91 89 91 90 84 77 67 60
37 36 37 37 40 44 47 52 56 57 54 53 57 54 47 47 46 51 49 43 41 42 44 47 54 76 88 94 97 99 98 99 99 98 91 89 85 83 82 79 76 73 71
36 33 33 39 44 48 52 55 59 57 54 54 54 54 51 50 49 54 50 42 41 43 43 42 46 68 81 86 94 94 95 98 98 98 98 94 90 88 88 87 85 81 78
33 32 33 40 46 52 56 59 62 58 56 57 55 56 53 51 53 56 51 42 40 44 44 41 39 57 72 73 80 86 82 93 97 97 98 99 99 97 93 92 90 89 89
31 33 37 46 51 57 63 66 68 62 60 59 59 58 54 52 57 57 51 43 40 42 45 43 40 41 56 73 73 79 79 75 96 97 92 92 97 99 99 98 96 93 91
31 35 45 51 57 63 69 70 70 64 61 62 61 61 56 55 60 58 50 43 41 40 46 45 45 41 42 57 72 73 72 74 73 90 98 92 86 82 79 80 81 81 80
37 44 52 57 62 68 75 74 66 61 60 62 64 63 59 59 61 58 50 45 42 39 44 48 49 48 46 46 58 72 75 70 70 74 78 96 92 88 82 77 77 77 76
44 52 56 63 69 74 80 77 69 65 60 62 68 65 63 61 62 59 53 47 45 40 40 46 50 50 51 50 52 60 71 75 72 70 71 69 84 91 87 83 77 73 73
50 55 62 68 76 80 81 75 72 73 72 68 70 66 65 64 62 60 56 51 47 44 40 41 46 51 52 53 53 54 60 73 77 75 71 64 59 63 84 87 83 79 74
55 60 66 73 80 83 78 75 75 75 74 74 73 71 66 65 62 62 60 57 53 49 45 42 42 45 49 52 54 58 61 65 76 80 78 75 63 56 54 57 65 75 76
58 63 68 75 82 86 80 80 79 76 75 72 73 74 68 63 62 64 64 64 60 55 52 48 46 45 45 47 49 51 55 60 65 78 84 81 78 68 53 50 45 44 45
64 69 70 76 82 88 86 83 86 86 82 73 65 67 67 61 61 66 67 70 68 64 60 57 54 50 49 48 51 52 54 55 59 64 75 83 82 79 74 58 48 43 39
70 74 74 77 83 87 89 90 92 94 93 87 73 64 64 62 63 67 69 72 74 73 71 67 64 61 58 54 53 56 57 58 58 61 66 74 81 81 79 75 69 53 44
77 79 79 79 83 88 91 94 95 96 97 97 97 82 67 65 64 65 69 72 76 78 79 78 75 72 69 65 60 59 59 60 60 62 67 72 77 83 82 80 78 75 70
77 81 82 85 88 92 93 94 97 97 97 98 98 98 93 71 66 68 69 73 77 82 85 86 86 83 79 76 71 66 63 62 62 63 66 70 74 78 87 88 84 81 78
80 81 84 88 91 93 95 96 96 98 98 99 99 98 98 94 79 74 74 77 80 86 90 92 93 92 90 85 80 73 68 65 65 65 66 69 72 76 81 86 89 88 87

GFSGL_prec_cthk_033.txt.gz
RH
75 68 62 61 57 51 48 41 33 30 30 29 26 27 32 41 47 53 47 52 57 64 67 70 63 54 48 49 49 46 42 43 53 46 51 52 52 53 51 45 45 43 39
67 64 62 58 53 48 39 33 34 35 31 28 28 30 37 43 46 50 53 56 60 62 63 56 49 47 46 44 45 45 56 62 63 60 62 66 69 63 58 58 58 51 46
63 62 58 54 47 38 38 38 37 32 30 30 32 35 39 43 46 55 58 55 55 52 49 47 44 44 41 42 46 58 65 72 77 76 70 76 77 77 75 73 65 63 56
62 58 55 46 41 41 42 40 33 32 31 31 36 40 43 50 55 61 52 42 44 46 46 43 38 38 41 42 57 67 74 80 84 88 85 86 87 87 87 87 82 73 68
61 56 46 44 44 44 42 34 34 33 33 34 38 42 47 53 58 59 42 42 43 43 42 36 34 35 38 47 63 75 83 86 91 93 93 92 94 95 95 95 91 84 73
58 49 46 46 46 43 36 34 33 35 35 36 39 46 53 58 60 45 43 43 41 40 38 35 34 37 45 57 69 80 86 91 95 97 96 97 98 99 98 97 90 84 81
52 47 47 47 43 37 34 33 33 34 37 40 45 52 55 52 46 47 43 41 40 40 38 35 37 43 48 63 76 87 94 98 99 99 98 100 99 99 98 92 90 93 91
48 47 46 43 38 36 35 34 33 34 37 42 48 53 54 51 50 48 43 41 40 42 38 37 41 45 51 68 80 90 97 99 99 99 99 99 99 98 95 92 97 98 97
46 46 43 40 38 36 34 35 34 35 41 45 48 49 51 52 51 45 42 40 43 43 39 42 45 48 53 70 82 90 97 99 99 99 95 92 93 95 92 99 99 99 95
47 44 41 37 36 35 36 35 36 40 46 52 54 52 51 54 51 45 43 43 46 44 42 43 46 48 55 72 83 91 97 99 98 97 95 90 93 93 96 97 97 92 89
45 41 37 35 34 35 34 36 40 46 50 54 55 53 52 50 50 47 45 47 51 45 42 42 41 43 56 70 84 91 97 97 98 99 97 88 86 88 95 96 94 90 84
42 37 35 32 33 32 33 41 45 50 55 57 55 54 54 50 50 48 48 53 46 40 40 40 38 40 52 56 70 82 82 86 98 98 99 96 91 88 85 85 86 84 81
38 35 31 32 32 33 39 46 50 54 58 59 59 57 55 53 52 49 52 54 45 38 40 41 39 38 43 52 65 73 82 77 97 99 97 99 99 92 90 89 86 82 80
35 32 34 33 32 36 44 51 57 62 65 62 60 60 60 58 55 52 57 54 44 38 37 41 41 41 40 43 54 68 73 76 84 98 96 93 99 99 99 96 91 89 88
33 34 36 35 36 42 49 57 61 66 67 63 60 60 61 61 57 55 60 55 45 40 36 40 43 45 45 45 46 59 69 72 76 84 98 95 89 89 96 98 99 98 94
36 37 36 37 41 48 54 62 67 69 66 61 60 58 60 61 60 59 62 56 48 43 37 37 42 46 47 49 49 51 63 71 71 75 77 97 95 88 84 85 86 89 92
38 37 39 41 48 53 60 66 72 73 67 63 64 63 65 65 63 63 62 59 52 47 42 37 39 43 47 48 50 50 53 65 74 75 70 68 84 96 89 82 82 84 86
40 40 45 48 53 59 66 71 76 75 72 70 68 69 67 68 65 65 63 63 58 52 48 42 39 40 44 47 50 53 54 56 64 76 77 68 61 64 92 91 86 79 79
41 43 48 52 56 64 70 76 77 75 74 74 74 70 69 70 69 66 63 65 63 59 55 50 46 42 41 42 45 49 52 56 59 67 78 80 72 60 53 70 82 83 80
45 48 53 58 61 66 73 78 80 74 77 79 78 73 71 71 71 68 62 64 66 65 63 58 53 49 45 43 43 43 46 49 51 56 63 78 81 78 63 52 45 57 69
50 51 55 61 69 72 75 82 85 80 81 85 84 79 76 72 68 68 63 61 68 70 70 68 64 59 54 51 47 46 46 48 49 50 54 60 75 80 79 70 54 43 36
56 60 60 62 73 79 79 83 88 89 90 91 92 90 82 74 67 65 65 62 67 71 73 75 75 73 68 62 57 54 51 50 50 50 51 54 59 71 78 78 75 58 46
61 68 70 68 73 81 84 86 88 90 92 94 95 94 95 94 83 70 67 66 66 69 72 75 79 80 79 75 70 65 60 55 53 52 54 56 57 61 68 77 79 78 70
66 70 76 74 79 82 87 90 93 93 95 96 97 97 97 98 97 93 76 71 69 69 71 78 80 85 86 85 82 76 70 63 57 54 55 57 58 58 63 70 79 81 81
68 72 77 79 84 86 87 90 92 94 94 93 94 96 98 99 98 97 95 82 77 74 74 79 83 88 90 92 90 86 79 72 64 59 57 58 60 59 61 65 72 84 88
64 73 77 81 85 87 86 86 87 84 83 84 86 88 92 95 93 93 93 94 90 85 83 82 84 91 95 96 96 94 88 81 73 66 60 59 61 62 63 66 71 76 83

GFSGL_prec_cthk_036.txt.gz
RH
65 67 70 63 57 53 53 50 43 39 38 38 37 36 36 39 41 40 42 54 55 53 56 56 58 61 55 54 56 56 55 55 53 45 59 61 63 63 64 64 60 57 57
71 70 62 57 53 53 51 45 42 42 41 40 39 39 40 40 42 44 44 52 59 62 52 52 53 54 55 53 53 55 54 52 62 60 66 71 71 71 71 69 69 68 67
68 62 59 57 54 50 48 47 47 44 42 40 37 36 36 37 43 46 53 60 63 49 45 47 49 50 48 47 47 50 51 59 70 76 75 79 80 81 80 80 78 76 77
60 59 59 55 50 51 49 48 45 42 40 38 36 35 36 40 46 50 56 61 53 46 44 42 43 43 43 40 42 48 56 69 78 83 81 85 88 89 88 86 84 86 87
60 61 57 54 52 51 49 46 43 37 38 36 35 36 39 42 44 49 54 46 48 43 41 41 41 42 38 38 44 52 63 75 84 87 90 91 93 94 95 92 89 90 91
63 59 56 55 51 50 46 42 40 38 41 40 43 43 43 45 44 44 44 45 47 43 42 41 44 44 45 42 47 55 69 81 89 94 95 97 97 98 94 97 96 98 94
63 57 56 51 50 48 44 40 39 37 40 39 41 44 46 50 47 46 46 45 46 43 42 44 47 47 46 49 52 60 77 87 94 98 98 99 99 94 93 97 96 95 92
58 58 53 54 50 47 43 40 36 35 38 41 41 45 49 50 49 48 47 47 47 45 45 49 47 46 48 48 54 66 81 90 97 99 99 99 96 89 93 96 96 91 91
58 60 57 53 49 45 42 38 35 36 42 43 46 52 54 54 48 48 45 48 48 47 50 49 42 43 45 49 56 68 82 90 98 99 98 96 86 84 88 93 96 99 98
62 58 55 51 47 42 40 37 36 40 43 45 52 54 55 55 52 49 46 49 48 50 51 44 42 42 37 51 53 60 81 85 91 97 96 95 90 85 90 96 98 98 98
57 55 52 47 42 41 39 38 42 42 45 50 51 55 55 56 55 49 48 48 49 54 46 41 42 40 36 46 51 58 71 78 83 97 96 96 97 89 87 95 98 98 97
54 53 47 44 44 40 39 44 44 44 48 53 55 57 58 57 56 52 53 49 49 52 44 40 40 37 38 39 48 54 61 76 83 97 99 94 99 97 90 88 88 89 87
49 45 47 46 42 39 45 45 45 47 53 59 64 66 63 61 60 57 56 51 53 49 41 33 35 37 38 42 46 48 60 75 81 91 99 98 93 99 99 95 90 89 85
46 46 46 45 40 44 46 43 47 52 58 63 66 64 63 60 63 60 60 56 59 52 44 37 35 38 41 45 51 54 58 67 77 81 94 99 95 91 98 98 99 94 90
46 45 44 43 43 47 45 47 52 56 62 67 67 62 60 61 63 60 62 60 62 55 45 41 42 44 46 48 52 55 56 59 76 81 78 92 99 94 88 91 98 99 99
42 42 45 43 46 44 46 50 54 57 63 66 65 61 62 63 63 62 62 60 60 57 50 48 45 45 45 46 49 53 56 57 58 78 80 72 79 99 94 87 88 94 99
45 41 40 42 42 45 48 54 59 62 65 68 67 66 65 66 67 67 64 62 60 60 57 54 50 48 47 46 45 48 54 55 55 61 80 84 72 68 97 95 86 86 89
44 44 44 43 43 47 52 60 63 66 71 70 69 70 71 69 69 70 69 65 62 62 61 59 56 53 52 49 47 45 45 48 52 55 62 82 87 75 68 90 97 89 82
49 48 47 46 47 51 55 61 67 69 75 74 74 76 74 76 71 68 72 69 65 62 68 67 64 60 58 56 53 46 40 41 44 48 53 61 81 88 80 63 67 80 90
50 49 50 52 53 57 59 63 74 76 79 83 80 82 82 80 77 72 68 68 68 61 66 70 71 70 68 65 61 54 50 49 46 44 47 50 60 76 89 85 68 53 67
56 57 58 57 59 65 66 64 75 85 83 86 86 88 90 87 84 81 75 70 68 65 62 70 73 77 78 76 71 65 60 54 50 44 44 47 49 56 70 86 87 75 54
59 60 60 63 66 69 73 72 74 87 92 92 92 92 94 93 92 94 87 76 72 69 65 66 71 74 79 82 81 77 71 63 57 51 46 46 51 57 56 66 82 86 80
56 59 61 62 67 74 77 79 80 85 92 96 97 97 98 97 97 97 97 98 86 77 72 69 69 71 75 80 82 83 80 75 67 57 51 49 49 55 54 60 64 79 83
55 60 62 61 62 68 80 80 83 88 91 94 96 97 94 94 95 96 97 98 99 93 81 76 74 74 77 82 86 87 86 83 77 67 58 53 50 50 53 56 64 63 74
55 62 64 63 69 73 82 82 86 88 90 90 89 87 86 84 85 88 92 95 95 93 92 87 83 80 82 84 89 92 92 90 86 78 68 60 54 50 51 55 56 64 64
64 67 71 72 76 80 83 88 88 89 87 82 76 70 70 72 78 83 88 91 93 94 94 93 92 89 86 87 91 97 96 94 92 88 81 70 60 55 53 56 58 61 65

GFSGL_prec_cthk_039.txt.gz
RH
67 66 69 81 63 54 53 50 49 50 49 44 43 41 42 41 39 33 39 44 48 52 54 61 63 60 53 60 59 61 59 58 60 45 45 50 59 61 64 66 64 64 59
66 69 81 74 59 54 51 54 53 50 47 45 43 44 43 36 37 38 39 40 46 52 58 63 65 56 53 52 54 54 51 51 52 50 44 57 64 70 70 70 71 75 73
68 73 69 62 58 56 55 56 56 51 48 44 48 46 45 42 40 40 43 46 51 56 62 59 51 50 47 47 47 47 45 46 48 51 54 65 72 78 77 79 80 81 80
67 71 63 60 60 55 58 59 54 51 49 51 49 46 44 43 45 46 47 48 50 50 52 49 47 46 47 43 43 44 45 46 51 57 66 74 81 86 88 88 86 86 85
71 63 62 61 56 55 60 58 56 52 51 53 48 46 46 45 43 41 42 43 42 46 49 47 47 45 42 43 45 44 48 50 54 64 74 82 90 94 94 91 90 84 84
66 70 68 59 57 60 62 58 55 54 55 51 54 48 44 44 41 43 44 43 41 45 47 49 47 48 50 50 46 45 48 55 62 75 83 90 93 96 97 94 86 87 87
74 70 64 60 61 64 61 59 57 54 53 50 46 45 44 50 44 47 46 43 45 47 49 50 50 51 53 47 46 46 53 60 70 80 86 94 94 96 95 85 87 92 93
73 68 59 66 68 65 64 60 55 57 52 49 48 43 46 53 49 50 47 46 48 50 50 50 53 53 48 41 38 46 53 61 72 82 89 94 93 91 86 79 88 89 89
74 65 72 73 68 64 59 57 59 52 47 46 44 46 54 57 53 55 51 50 50 51 50 53 56 46 41 36 35 48 53 61 75 78 85 91 87 87 81 81 90 96 94
69 81 71 66 65 57 55 57 53 48 46 43 45 49 55 60 56 55 53 53 51 51 52 58 52 41 37 34 34 46 55 61 67 72 91 92 89 92 89 82 93 97 98
83 73 69 64 55 55 51 49 50 48 47 43 44 50 57 61 63 57 55 55 53 54 51 57 51 39 34 34 34 40 53 49 62 79 90 94 92 88 94 86 86 93 96
73 70 65 59 56 50 51 53 49 50 47 48 47 51 59 63 63 59 55 56 53 52 54 53 43 32 32 33 37 42 45 55 65 80 87 96 96 88 92 96 91 91 91
71 63 60 56 58 58 57 52 47 47 48 50 53 58 63 67 68 63 59 57 54 53 55 53 39 33 34 37 42 46 50 58 62 74 84 91 97 95 88 94 99 95 90
64 63 61 59 59 58 57 51 47 48 48 51 56 62 68 69 67 67 63 60 56 56 56 57 44 40 40 41 42 48 52 57 57 68 82 82 91 98 94 89 95 97 97
66 65 61 57 55 55 49 47 49 48 50 56 60 64 68 70 68 71 69 67 65 62 57 57 52 51 47 49 47 47 51 56 57 58 71 87 81 89 98 91 90 95 99
61 55 54 50 49 48 47 43 45 48 53 58 63 65 66 64 65 67 67 67 67 64 59 60 59 57 52 51 51 49 49 51 53 58 61 74 88 75 88 99 91 90 94
48 45 46 46 43 42 44 46 49 51 54 61 66 67 67 67 70 73 70 68 69 68 63 59 65 62 57 59 57 53 51 47 45 51 56 62 73 88 77 87 98 92 87
47 46 47 47 49 48 47 52 55 57 58 64 69 71 72 73 76 77 75 74 71 72 69 62 63 69 67 66 65 61 53 49 47 46 49 54 59 69 91 81 77 96 95
44 46 49 51 52 53 53 54 58 61 63 66 76 78 79 80 83 83 80 77 76 74 73 69 64 71 73 71 70 66 62 56 52 48 46 48 52 56 66 87 85 69 84
50 52 54 55 55 55 58 61 64 66 67 70 75 87 89 85 88 90 87 82 77 73 72 72 68 66 73 74 77 76 72 66 60 56 51 47 47 51 55 60 82 83 71
53 57 61 61 61 62 61 62 63 72 73 75 79 88 96 95 94 97 97 96 91 83 75 74 71 66 65 70 75 81 81 78 73 66 58 51 48 48 51 54 57 75 83
52 56 57 54 56 62 64 66 68 68 74 81 83 88 96 98 98 98 99 98 98 98 95 84 79 74 70 68 70 76 84 84 83 76 68 58 52 49 48 52 54 56 69
52 52 53 54 59 63 65 61 64 72 74 83 85 91 96 97 98 98 97 97 98 99 99 98 92 81 77 74 73 74 82 88 88 83 75 66 60 53 51 50 53 55 56
59 52 54 58 61 65 69 68 71 74 81 84 87 92 96 97 97 95 93 90 90 93 94 97 97 93 84 82 80 79 80 88 89 87 82 76 68 61 56 53 52 55 58
55 60 68 63 67 69 72 74 75 79 83 89 91 94 95 92 88 81 78 80 84 88 93 95 96 96 95 91 88 85 85 88 93 92 88 84 79 68 59 52 53 52 58
51 60 67 69 70 71 73 75 79 83 88 91 92 96 93 84 71 69 72 75 76 81 88 93 95 97 97 97 96 93 91 90 97 97 94 89 86 79 72 65 58 52 59

GFSGL_prec_cthk_042.txt.gz
RH
57 61 63 66 69 69 69 72 69 52 44 48 51 52 52 50 47 45 42 38 35 38 42 46 50 57 64 68 64 55 51 51 50 44 44 41 40 38 38 47 52 52 52
60 63 66 68 75 69 73 72 59 49 51 53 54 53 52 54 48 39 36 37 33 37 45 46 50 58 56 49 45 42 41 44 45 43 38 37 41 42 50 56 60 63 60
63 67 69 71 76 66 77 63 53 56 59 58 55 54 61 54 46 41 38 42 44 46 46 46 46 43 41 42 41 42 40 42 44 43 39 40 45 50 59 64 69 72 77
67 72 70 71 78 68 68 61 61 60 61 59 59 60 56 50 44 44 50 47 47 45 38 40 40 41 43 44 42 41 43 42 39 40 43 46 52 63 70 75 77 79 77
71 70 73 75 70 76 67 59 63 67 62 62 62 63 57 49 49 47 48 45 43 39 34 41 43 43 42 43 46 47 44 40 39 45 50 57 67 70 77 83 85 83 75
70 70 74 77 78 71 61 69 74 68 64 67 64 61 52 50 45 45 47 48 45 39 38 43 43 43 44 47 50 46 42 41 44 52 55 64 71 83 88 85 83 81 64
65 72 78 83 69 66 75 76 70 69 66 63 57 56 49 49 46 46 49 51 48 41 44 47 46 47 47 50 43 38 34 40 52 56 61 71 78 84 84 78 78 69 70
73 79 81 83 75 77 76 74 71 71 66 59 60 56 55 53 48 50 54 55 53 45 49 49 48 50 51 44 36 33 31 40 51 60 67 73 80 86 84 80 80 68 77
76 88 84 80 82 82 71 68 70 65 66 63 55 54 52 52 49 53 58 61 53 47 49 49 51 53 49 41 35 31 31 36 50 55 56 67 87 89 88 85 84 76 83
86 88 89 85 75 70 74 67 65 64 62 59 55 51 49 44 48 56 65 58 49 50 51 51 48 52 47 39 33 31 31 36 41 51 61 74 89 92 90 86 91 79 83
89 91 84 82 80 72 70 69 62 58 57 56 50 43 45 45 50 58 66 57 51 51 53 50 51 53 46 36 33 33 33 37 44 52 60 72 88 92 91 85 94 94 85
94 90 83 79 75 74 70 63 60 57 52 52 48 47 47 49 56 57 61 57 55 54 55 51 49 52 44 37 35 36 39 41 46 50 59 68 80 92 93 88 89 96 95
89 82 74 72 75 68 61 57 56 54 49 47 46 45 48 54 61 62 64 65 61 59 58 55 51 54 49 42 40 40 40 40 44 47 55 66 73 82 95 93 86 93 95
82 74 71 68 60 57 56 57 60 56 52 49 45 47 54 62 66 65 63 65 70 65 63 62 57 56 56 48 46 46 43 42 42 45 51 57 73 76 80 96 89 87 92
65 62 60 52 49 48 47 48 45 46 49 49 51 55 61 64 68 70 68 69 71 71 70 68 62 58 62 54 50 51 48 44 43 42 44 53 62 79 73 86 97 87 90
52 46 42 40 39 40 39 37 43 45 46 49 54 64 68 72 73 70 70 69 74 74 71 69 67 62 66 62 54 56 56 51 46 43 42 46 53 61 81 78 91 96 87
40 36 37 36 36 39 44 47 45 42 47 50 58 65 72 76 82 73 75 75 77 76 73 70 72 68 64 65 63 63 65 60 55 50 45 42 45 52 60 85 75 85 94
34 31 33 38 45 49 53 55 57 55 50 51 58 63 71 79 86 84 85 87 84 80 75 73 73 72 68 64 68 72 70 69 65 57 51 46 44 45 50 59 82 75 78
34 37 42 46 50 55 60 60 58 63 60 57 59 66 71 80 82 92 94 92 90 86 80 75 74 75 72 69 67 71 74 76 75 68 62 56 48 45 45 50 56 79 79
42 46 53 59 66 68 71 66 59 69 68 64 66 66 75 80 84 89 96 98 97 95 92 83 79 76 75 71 70 66 71 78 81 81 75 67 57 48 45 45 49 53 73
52 55 56 57 64 67 60 60 61 66 70 70 68 71 76 82 86 90 96 98 98 98 97 97 96 86 80 79 73 70 68 71 78 83 83 76 66 56 50 47 46 49 51
42 41 42 52 59 61 54 57 58 62 67 66 70 76 77 84 87 92 96 98 98 98 98 98 98 98 97 87 79 76 72 71 74 82 85 82 74 65 58 51 49 47 49
33 36 42 49 55 68 61 65 65 67 70 71 76 78 81 85 89 92 97 99 98 98 99 97 94 95 96 97 94 82 79 78 77 82 87 87 83 75 68 59 54 50 49
29 27 32 36 55 67 73 79 74 70 72 73 76 80 85 88 91 93 99 99 98 95 92 89 91 94 96 96 97 97 90 88 84 82 89 90 87 83 76 66 58 56 52
30 34 43 46 51 72 80 80 75 74 75 79 81 85 87 91 92 95 95 92 85 79 80 84 88 91 95 97 97 98 97 95 91 87 90 94 92 89 81 74 66 59 56
42 52 58 60 66 79 76 74 78 80 77 78 83 87 90 92 94 98 95 86 76 77 77 77 80 86 90 94 96 97 98 99 98 95 93 98 96 93 89 84 78 69 62

GFSGL_prec_cthk_045.txt.gz
RH
57 61 66 70 73 76 73 71 75 89 80 54 51 50 56 58 57 54 51 47 46 46 43 40 43 43 44 45 50 54 53 53 46 38 37 37 37 36 33 33 35 38 42
63 65 71 77 82 77 78 80 78 79 58 56 57 62 60 61 57 59 52 49 48 49 46 43 39 38 39 44 43 40 40 38 36 31 34 36 34 34 37 39 42 47 51
65 71 81 85 76 78 76 77 78 69 62 60 66 67 61 61 62 62 53 57 59 52 45 41 37 37 37 36 36 36 37 36 37 40 35 31 35 39 44 50 55 57 60
67 72 75 74 77 74 77 74 80 75 66 67 75 62 67 68 66 63 57 58 54 52 49 42 34 35 37 39 38 38 38 38 40 35 31 35 41 46 51 58 63 66 67
67 71 74 73 73 75 79 89 79 72 74 78 67 73 68 71 71 64 59 62 59 54 48 40 36 40 43 40 38 41 43 41 36 32 34 41 46 52 60 68 70 69 67
69 74 69 71 75 78 87 84 78 80 82 75 74 70 76 67 64 62 58 56 55 50 49 41 42 42 43 40 43 48 44 36 31 32 42 48 53 61 66 71 73 69 61
69 70 75 76 77 93 89 85 87 85 75 80 79 76 64 62 63 58 51 52 52 51 52 46 46 48 48 44 47 46 35 34 31 38 45 52 56 62 69 78 78 75 71
74 76 73 81 93 92 92 91 83 83 81 81 75 69 63 62 57 54 50 54 54 58 61 52 47 51 47 45 48 39 34 33 31 36 46 49 53 62 81 87 85 77 73
76 81 89 94 93 94 88 85 84 80 76 73 71 66 58 57 58 58 50 48 53 61 61 50 47 52 49 47 47 38 32 33 33 36 43 50 58 71 86 91 87 77 73
88 94 96 96 93 89 89 82 80 73 66 63 62 63 62 60 54 47 46 51 57 62 59 48 52 54 49 48 46 37 34 33 34 37 40 49 57 70 87 92 90 82 81
97 97 96 94 92 83 77 74 66 63 59 58 54 52 51 46 44 47 52 54 58 57 57 54 55 55 50 49 49 40 38 37 38 38 40 45 56 62 79 92 94 88 86
96 93 92 85 77 71 64 61 54 52 50 49 46 44 44 45 46 49 55 61 66 65 64 63 62 57 52 50 52 46 43 42 41 41 42 45 51 64 68 86 94 92 91
88 82 72 64 54 53 54 48 44 43 43 42 43 45 46 48 49 53 58 66 69 68 68 71 69 64 59 53 56 52 48 47 45 43 42 43 47 57 71 72 91 93 88
68 59 49 41 38 40 37 38 37 39 42 44 46 48 50 50 53 60 67 70 67 66 71 76 72 69 67 58 59 57 53 53 50 47 44 42 42 49 60 78 80 93 88
37 30 28 26 26 28 29 33 38 44 48 49 50 51 53 51 58 65 70 74 73 72 73 80 78 73 71 65 59 63 57 57 58 55 50 44 40 43 49 67 80 85 94
22 22 21 23 27 30 33 35 45 50 52 55 57 56 55 58 63 68 74 78 77 75 76 78 77 76 75 72 64 63 63 62 64 64 57 48 43 41 43 51 75 75 85
23 24 25 28 32 36 41 45 44 42 51 53 56 59 59 59 65 71 76 81 86 83 83 84 78 74 73 73 70 65 63 67 69 70 67 57 51 45 42 45 52 80 72
28 30 32 36 41 44 49 55 61 62 55 51 51 62 62 60 65 73 81 84 85 89 91 90 84 77 75 75 72 69 66 67 73 76 75 70 62 53 46 43 46 51 80
35 39 45 49 50 54 58 63 66 68 70 66 51 55 63 65 67 72 81 86 86 91 96 96 90 84 80 78 77 73 70 67 70 77 78 79 72 64 53 46 44 46 51
41 46 48 50 49 48 48 52 61 69 69 69 59 60 61 64 64 71 78 86 89 92 97 98 97 94 87 84 81 79 75 71 69 71 76 81 80 73 62 53 47 45 46
32 31 31 31 29 33 36 42 52 66 66 66 59 61 63 66 70 78 78 85 90 92 97 98 98 97 95 95 92 86 81 77 73 70 72 79 81 78 72 61 53 49 46
32 33 30 26 23 22 28 38 49 67 79 77 72 65 66 68 75 78 80 86 90 93 97 98 97 97 98 98 97 95 92 84 78 73 73 79 83 83 80 72 61 54 50
28 25 25 24 26 30 36 36 51 79 80 83 77 74 66 70 76 80 85 87 91 94 98 99 98 97 97 92 94 96 98 97 90 85 79 80 87 88 85 80 72 62 55
30 30 35 37 42 48 53 49 48 74 88 82 80 79 70 76 81 85 88 90 92 96 98 99 99 99 93 92 93 96 97 98 99 96 89 85 86 91 90 85 80 69 61
29 33 37 42 49 57 59 63 72 81 83 84 82 77 75 77 83 89 90 91 95 97 96 93 85 81 87 92 92 95 96 97 97 99 97 93 89 94 93 90 85 80 70
32 35 39 44 48 52 60 65 71 79 81 82 80 78 76 77 82 87 89 93 97 98 96 88 82 82 83 86 90 92 94 95 96 98 99 98 94 97 96 93 89 87 80

GFSGL_prec_cthk_048.txt.gz
RH
67 74 77 78 82 87 93 84 93 94 82 81 79 62 58 53 62 66 59 64 61 56 56 55 56 55 50 47 43 40 42 42 38 31 32 29 29 29 30 28 28 30 33
68 72 72 74 89 88 92 91 92 86 80 84 76 67 57 65 69 61 71 69 68 64 61 61 58 55 48 44 38 36 33 35 34 29 30 32 32 27 30 31 34 37 40
83 79 78 87 83 96 74 76 87 77 82 79 76 78 69 70 69 75 71 77 75 65 67 66 62 57 51 38 35 37 37 36 37 36 35 31 26 31 33 37 40 43 50
82 92 86 78 85 71 74 85 79 76 79 82 85 69 74 77 76 82 78 79 73 68 67 68 65 57 44 37 40 41 38 37 40 40 32 28 30 37 41 45 45 48 53
87 83 77 81 74 74 78 80 82 83 88 86 76 79 81 83 82 76 76 78 76 68 66 65 59 51 44 41 43 42 38 40 43 35 32 28 34 41 46 49 50 55 62
79 71 77 80 73 80 82 88 90 94 91 86 86 88 83 79 78 76 73 69 65 61 61 57 55 55 51 49 50 46 43 46 41 36 30 31 38 45 48 51 58 67 70
68 75 77 77 80 84 90 91 95 92 92 90 83 81 80 75 69 63 66 63 58 51 50 52 57 59 51 49 49 47 48 46 39 35 31 34 38 45 49 57 70 75 77
74 74 75 79 87 91 93 92 94 91 85 81 78 73 67 61 59 55 54 49 46 48 51 57 61 59 52 51 51 49 48 44 38 36 35 36 40 47 55 65 76 80 76
76 82 85 90 91 95 97 94 88 83 76 70 62 55 51 48 47 45 43 44 45 48 55 61 62 55 53 52 53 49 48 43 39 39 40 39 40 48 55 62 75 81 76
85 88 89 92 96 93 87 80 70 66 54 47 41 41 39 36 40 45 45 45 47 52 57 58 56 57 57 54 54 50 48 46 43 42 43 41 41 45 52 59 71 86 85
89 91 97 92 84 77 65 57 51 41 33 29 29 31 34 38 42 46 49 48 51 56 61 61 64 63 62 60 57 49 52 51 47 45 45 44 44 44 49 58 63 84 89
95 89 83 75 63 49 39 28 25 24 25 28 31 32 37 41 46 49 52 53 56 59 66 68 70 71 68 66 62 56 55 57 52 50 49 47 45 42 44 55 60 74 90
75 68 55 43 31 21 19 20 22 24 27 30 34 37 40 45 49 51 51 57 61 64 69 71 72 73 74 71 69 65 59 60 57 55 54 53 49 43 40 45 61 69 85
51 40 26 18 16 17 18 20 22 26 31 35 39 42 44 43 46 50 54 58 63 68 77 79 80 81 78 78 76 71 64 62 62 59 60 61 55 47 42 41 51 67 75
21 16 15 16 17 18 21 24 29 35 42 45 47 49 49 46 48 50 52 58 64 71 77 83 85 87 83 80 78 75 72 64 63 64 66 68 62 52 46 42 43 55 70
17 18 19 21 24 27 31 32 38 46 51 56 60 62 59 60 56 53 52 55 62 74 76 83 86 85 86 83 79 74 76 70 65 68 71 74 72 62 53 47 42 44 61
21 22 24 27 30 34 39 46 49 44 52 57 66 70 78 70 66 64 60 59 64 76 75 82 89 88 90 86 79 75 76 73 68 68 75 79 78 72 62 53 46 42 45
25 29 32 34 38 42 48 53 58 58 53 49 53 59 69 81 76 71 70 67 66 76 79 84 87 92 96 88 82 78 77 74 71 70 74 80 80 78 72 61 52 45 42
22 23 24 25 27 33 38 40 40 40 41 41 39 48 67 74 75 70 72 70 69 74 81 85 89 93 97 93 86 82 79 78 74 73 74 76 78 80 77 70 60 50 45
18 19 22 26 29 31 30 28 25 27 33 44 44 58 75 70 67 60 60 66 74 79 81 87 90 93 98 98 92 87 85 83 81 79 76 75 76 78 78 76 68 56 51
22 24 25 26 28 28 28 29 29 30 33 33 42 69 80 78 72 73 62 70 81 83 84 88 92 94 99 98 98 96 94 88 85 83 82 77 74 78 81 80 76 65 56
23 24 25 27 29 32 33 36 42 44 44 44 52 75 83 82 80 78 70 69 78 83 86 91 92 94 98 98 99 98 98 96 94 89 84 81 77 80 86 84 82 75 65
24 24 24 26 29 32 37 44 46 49 50 56 75 81 85 85 82 77 74 74 84 86 89 91 93 96 99 98 99 98 98 95 96 98 95 90 84 82 88 88 86 81 74
24 23 25 27 28 32 37 44 51 56 62 73 83 89 89 88 84 84 77 80 84 88 89 92 95 98 99 99 99 99 97 98 98 98 99 98 94 88 89 92 89 85 80
23 24 27 29 31 33 37 41 46 54 61 74 83 83 87 89 88 79 77 77 85 90 91 95 97 96 97 96 94 93 95 97 98 98 99 99 99 95 91 94 93 89 85
25 27 29 31 33 36 40 43 47 53 57 66 72 79 81 84 87 82 80 80 83 87 88 95 99 98 96 91 89 89 93 95 97 98 96 96 98 98 94 97 96 92 90

GFSGL_prec_cthk_051.txt.gz
RH
50 55 68 72 78 81 80 81 85 83 97 96 81 86 87 75 75 67 66 66 72 71 74 69 63 67 69 67 68 61 54 47 38 29 30 28 26 27 27 26 25 25 28
70 76 78 82 82 85 87 89 82 91 89 82 85 92 84 79 77 72 78 74 76 77 73 70 71 74 71 69 64 59 42 38 39 34 30 29 29 30 26 24 27 30 35
74 76 82 82 90 93 90 89 93 81 80 79 85 85 84 83 80 78 77 80 74 75 78 76 69 69 67 66 57 48 40 43 42 38 34 34 30 29 25 28 32 35 38
80 83 85 89 89 82 85 91 84 81 85 85 92 89 88 85 82 80 76 74 73 71 66 60 61 58 55 50 49 46 44 44 44 42 40 35 32 28 28 33 31 37 39
80 86 90 90 79 84 85 84 82 84 88 91 91 92 89 87 83 80 74 67 61 53 52 49 45 44 47 52 55 53 48 49 47 46 42 35 33 29 31 34 38 41 49
84 89 83 77 76 80 87 80 83 89 91 94 94 93 85 83 77 67 59 47 39 41 39 41 43 48 52 57 62 52 51 52 49 47 42 37 33 31 32 36 44 49 56
68 70 72 76 78 80 81 85 90 94 93 95 91 82 76 68 56 44 34 32 35 38 40 42 45 50 55 61 65 55 55 55 51 48 41 37 34 35 33 36 47 54 64
61 66 75 77 79 85 90 92 95 97 95 88 75 59 46 34 26 27 30 33 36 39 40 44 46 52 59 64 60 58 60 59 52 45 42 40 38 37 38 40 47 52 60
69 70 73 79 87 92 94 95 96 87 74 58 44 29 20 20 23 27 32 36 40 43 45 46 48 55 60 55 56 61 65 60 51 46 46 44 42 43 41 39 43 51 56
68 74 84 95 97 96 91 86 79 63 45 26 20 20 21 21 26 32 37 41 45 46 47 50 54 58 61 62 61 65 67 63 51 50 52 48 47 48 47 46 44 48 58
80 91 98 95 93 89 78 60 47 29 20 18 19 20 22 26 32 39 44 47 49 47 48 53 59 64 69 69 67 68 69 65 56 54 55 53 49 50 50 46 46 47 55
91 92 91 84 72 58 46 31 21 19 19 19 20 22 26 32 40 44 48 50 51 49 49 56 61 67 71 73 71 73 74 70 63 56 57 57 53 54 53 46 45 44 56
81 74 65 54 43 30 21 18 17 18 19 20 24 26 30 39 46 49 50 52 53 50 51 57 64 71 78 81 77 80 82 78 73 62 58 60 58 58 58 50 47 43 48
63 53 41 30 21 17 16 17 18 20 23 25 29 35 42 47 50 52 55 57 59 60 57 60 66 73 83 86 84 84 86 82 77 71 63 61 63 64 64 58 49 45 39
41 29 22 19 18 17 19 21 24 26 32 36 40 49 57 55 53 63 68 67 66 66 64 62 68 76 84 87 87 89 90 84 79 75 68 63 66 69 71 65 57 49 42
25 21 19 18 18 20 22 21 25 31 35 43 52 65 63 63 65 76 73 85 82 76 69 62 65 78 85 88 88 90 93 85 78 78 72 66 68 74 77 71 63 56 47
21 20 20 21 23 25 25 25 23 20 25 26 30 38 49 55 55 68 67 81 82 82 76 67 66 76 85 88 91 94 93 84 80 79 73 69 70 75 80 76 69 62 51
16 16 16 16 16 17 19 20 20 21 20 15 13 16 22 29 35 46 64 76 84 79 72 70 70 77 85 89 91 95 94 86 83 80 76 72 72 75 78 78 72 67 57
17 17 17 18 18 18 18 19 20 21 23 24 23 18 20 22 45 60 77 84 76 73 70 69 74 80 86 90 93 95 96 89 85 81 78 75 75 75 77 77 73 72 64
19 18 17 17 18 18 20 23 25 29 32 29 30 33 35 34 42 78 87 88 82 81 78 76 83 85 87 91 94 96 98 92 86 86 82 79 79 77 76 78 75 74 71
17 17 18 17 19 21 22 24 30 33 35 37 37 42 49 48 45 76 82 85 84 79 80 77 82 86 89 93 94 98 99 96 92 89 88 84 82 80 75 78 79 79 77
18 18 18 19 19 19 21 26 30 32 36 43 44 49 56 66 76 83 85 86 80 78 78 82 84 88 92 93 95 99 99 98 98 97 93 87 86 83 79 80 84 84 82
19 19 19 19 20 21 23 26 29 31 34 37 52 55 65 74 79 87 89 83 82 83 84 84 86 90 92 95 98 99 98 98 98 99 98 97 94 91 85 83 87 88 85
21 20 20 21 22 24 26 28 30 32 35 38 41 52 67 73 82 88 89 88 85 85 81 83 88 92 94 98 99 99 99 99 99 99 99 99 98 98 95 88 89 92 89
23 23 23 24 26 27 30 31 33 36 38 41 44 48 57 76 85 90 90 90 88 86 81 79 88 93 97 97 96 96 98 99 99 99 99 99 98 98 99 95 91 94 93
24 25 27 29 30 32 34 35 37 40 43 46 48 52 57 61 78 90 91 91 90 90 83 82 86 90 95 98 98 97 97 97 98 99 99 99 98 98 97 97 94 96 95

GFSGL_prec_cthk_054.txt.gz
RH
59 61 65 68 68 79 87 88 91 94 91 93 97 97 94 89 86 90 84 82 80 77 80 79 72 67 61 49 45 42 42 42 36 29 31 34 33 30 26 26 27 28 28
68 73 74 82 88 89 90 94 90 91 95 93 86 93 87 88 93 91 86 80 82 83 76 67 60 44 35 32 34 38 42 40 39 34 35 36 35 32 28 29 30 30 30
75 80 82 86 88 91 93 91 89 86 87 96 96 83 92 93 91 90 83 85 79 71 57 45 30 28 30 33 39 43 44 45 47 41 40 40 36 33 32 31 30 30 32
78 80 84 86 88 93 95 92 87 86 87 95 87 96 92 93 91 86 87 80 69 42 30 27 28 29 32 37 42 45 48 52 53 47 45 42 39 36 34 31 30 32 32
64 63 75 83 90 91 88 83 81 86 90 86 84 94 97 97 94 87 77 62 31 25 25 28 31 34 37 41 44 48 53 57 55 50 49 45 41 38 36 34 34 31 32
57 62 62 69 79 78 70 77 82 83 80 93 98 97 97 95 79 63 44 28 24 25 27 32 34 38 43 45 47 50 56 61 60 54 53 48 44 39 39 37 37 38 38
51 53 58 65 78 75 79 81 77 83 90 94 96 95 83 66 51 37 25 22 24 26 32 36 40 44 45 44 48 55 61 62 57 58 56 51 44 44 43 39 39 40 40
51 62 71 74 75 75 78 84 92 97 95 96 92 74 53 41 25 20 20 22 25 30 37 43 46 47 49 48 51 57 56 56 59 62 59 52 45 46 47 43 44 42 35
64 68 69 70 73 82 91 93 94 97 96 85 65 45 28 21 20 20 22 25 30 36 44 51 53 50 52 54 54 57 59 60 62 65 62 54 48 51 53 47 49 44 35
63 66 71 77 86 93 94 97 97 91 73 52 32 23 20 18 21 23 27 32 35 41 50 57 59 54 55 57 59 66 68 65 66 68 64 59 53 55 57 51 51 48 44
66 72 84 86 87 88 85 79 73 57 38 24 19 17 18 19 21 26 31 38 43 50 55 57 59 59 58 57 62 69 73 70 71 72 72 67 58 56 58 55 54 53 48
76 79 78 78 77 71 63 52 38 26 19 16 15 15 17 22 27 29 36 48 53 60 59 59 59 63 63 60 63 73 79 77 77 79 80 74 66 59 61 60 58 56 53
73 71 69 66 58 49 36 26 20 17 17 18 20 22 22 25 32 42 48 52 57 60 56 59 63 68 70 65 68 78 81 85 84 87 85 79 74 64 62 64 62 60 57
68 62 55 47 36 29 25 23 21 20 21 24 28 31 34 33 34 38 47 57 60 60 61 64 66 75 79 75 71 80 83 87 89 91 89 84 80 70 65 66 67 66 61
54 47 38 32 28 24 22 19 18 20 22 22 23 23 26 23 23 31 39 46 56 63 76 79 78 84 84 82 76 80 85 88 91 93 92 86 83 74 69 69 70 71 65
42 37 32 27 22 18 15 15 16 15 15 15 17 20 17 20 18 16 20 26 45 62 69 94 85 80 85 85 78 80 85 90 93 95 94 84 83 75 72 71 72 75 68
38 32 25 21 19 17 16 14 12 12 13 13 15 16 18 20 22 21 19 25 34 44 59 84 78 79 83 84 78 82 85 91 93 95 90 84 83 76 72 72 73 76 70
32 27 25 22 20 17 14 13 14 15 15 13 14 17 19 20 23 26 27 31 41 49 64 71 80 81 84 82 77 82 88 92 94 95 90 87 82 76 73 72 73 75 70
29 29 27 20 15 14 15 15 16 18 21 20 19 19 23 24 26 32 31 41 52 72 81 89 84 81 82 79 85 86 90 93 94 96 91 87 83 78 77 74 75 74 70
32 30 21 16 15 16 16 16 17 18 20 22 24 25 27 30 31 39 42 57 75 78 79 83 80 81 82 84 87 90 91 94 95 97 92 88 87 81 79 78 76 75 73
31 23 17 17 17 17 18 19 19 21 23 24 26 28 30 38 43 51 61 64 73 78 82 82 81 81 84 82 85 91 93 95 96 98 95 92 90 87 83 80 76 77 78
23 19 19 19 19 20 20 21 23 25 26 27 27 30 30 33 43 55 66 75 79 86 87 86 84 88 90 86 89 92 94 97 99 99 97 96 93 89 87 83 78 79 82
21 21 21 21 22 22 22 24 26 27 28 30 31 33 33 35 38 49 66 78 85 89 90 90 87 88 90 89 91 93 95 98 99 99 99 98 97 96 93 91 85 83 85
24 23 23 24 23 23 25 27 28 29 31 32 35 37 39 40 41 45 54 75 85 90 92 92 89 84 82 87 92 95 98 99 99 99 99 99 99 99 98 98 93 87 86
26 26 26 23 24 26 27 28 29 32 34 37 40 43 45 47 47 49 54 62 81 89 97 96 92 86 80 86 93 97 99 98 99 99 99 99 99 99 98 99 98 93 90
28 27 25 27 28 28 29 29 32 35 37 39 41 43 46 49 52 53 57 62 70 88 98 99 98 91 85 83 90 97 99 98 97 99 99 99 99 99 99 98 99 96 92

GFSGL_prec_cthk_057.txt.gz
RH
47 51 67 77 77 83 85 83 89 94 96 93 97 98 97 94 97 93 95 95 87 82 78 73 66 56 38 25 23 26 32 35 37 34 38 38 38 39 40 35 30 29 28
49 60 73 80 85 91 91 91 94 95 97 97 93 94 95 98 95 97 97 86 85 80 75 64 51 31 23 24 27 30 33 40 43 40 43 44 43 44 40 36 33 32 30
57 65 71 80 86 87 86 95 96 98 97 98 92 92 91 97 98 94 91 85 79 73 64 48 29 24 25 28 30 34 38 43 45 46 44 48 45 46 45 41 37 35 35
60 65 72 77 79 83 93 96 89 90 92 87 85 93 97 96 88 93 91 83 74 58 40 29 23 25 28 32 34 39 44 48 50 50 50 51 51 49 47 41 40 40 39
61 59 58 59 65 72 77 76 72 73 77 83 89 83 86 95 95 94 88 73 57 38 28 24 24 27 31 33 38 45 52 54 53 54 54 56 55 56 49 44 43 42 42
52 54 55 58 61 59 60 59 75 72 81 77 90 91 96 96 96 88 76 55 32 27 23 24 26 30 33 37 43 50 54 58 58 58 56 55 56 60 52 47 47 47 44
49 48 48 50 52 55 67 75 69 75 75 92 93 93 95 96 84 67 49 31 25 23 22 25 29 32 39 43 51 57 58 57 60 58 49 55 58 62 54 50 51 55 50
42 47 51 54 64 67 66 69 78 83 89 95 98 97 89 78 62 45 28 23 21 21 23 27 32 37 45 55 58 61 58 59 56 52 50 57 61 61 55 55 54 55 52
48 53 58 63 65 69 73 79 85 87 90 91 84 74 63 45 34 27 24 23 23 23 27 32 39 48 53 61 60 59 59 59 59 57 56 58 61 61 59 57 57 63 55
55 57 59 61 69 76 84 86 84 78 73 67 57 43 32 26 22 21 22 24 26 29 32 40 47 54 58 62 59 59 60 62 64 64 62 63 64 66 65 60 59 60 61
59 64 66 70 73 75 71 67 65 58 47 36 28 23 21 19 18 20 23 30 34 36 39 41 45 53 60 60 59 62 65 67 66 70 71 72 73 75 76 68 62 61 62
66 71 70 66 65 62 56 50 42 34 29 26 24 22 20 21 24 27 31 35 40 44 41 42 44 50 63 64 67 72 76 79 71 74 78 82 82 83 83 73 66 62 65
68 65 62 57 52 46 42 37 34 31 28 25 22 20 18 17 18 15 14 16 25 38 45 44 47 56 65 70 77 83 84 82 80 75 81 89 90 91 86 78 68 65 67
61 55 50 46 42 41 38 34 28 23 21 21 21 21 20 17 19 19 18 18 18 19 21 34 52 61 67 79 82 99 89 84 85 75 83 92 94 95 88 83 72 69 71
51 46 44 42 40 38 33 28 25 25 24 21 20 23 20 17 19 18 19 18 21 21 28 28 30 52 77 65 91 92 93 85 83 79 84 92 95 98 89 84 74 73 74
45 43 43 44 40 33 31 30 27 24 20 17 15 18 19 18 16 15 16 17 20 23 23 27 35 37 66 88 92 91 88 80 82 79 85 93 96 98 90 84 76 74 75
47 48 47 40 35 33 33 30 24 22 17 14 14 14 16 17 18 20 20 22 25 28 27 30 40 42 53 87 90 87 85 81 81 82 88 94 96 96 88 84 77 75 77
53 49 41 37 37 36 31 26 22 18 16 15 14 14 15 16 17 20 25 29 37 34 41 46 60 72 80 84 87 85 85 83 81 86 92 96 96 93 88 81 78 76 78
48 43 41 40 38 33 27 23 18 15 15 15 14 14 16 17 18 20 26 36 48 47 57 61 69 80 83 87 81 81 83 88 87 90 94 96 97 93 89 82 80 78 78
47 45 43 40 34 28 23 19 18 17 17 16 16 17 17 17 18 19 23 34 47 55 64 74 78 80 83 83 84 84 85 89 90 92 95 96 97 93 89 85 81 81 81
48 46 41 34 29 25 22 22 20 19 18 19 20 21 23 23 23 25 27 30 41 59 64 72 79 86 87 84 85 85 82 86 91 94 96 98 98 94 92 90 85 81 78
47 42 35 30 27 26 24 22 22 21 21 22 23 24 25 27 28 30 31 34 37 50 68 77 83 89 91 90 90 93 89 91 92 96 98 99 98 97 94 92 89 84 80
43 36 33 32 29 26 25 25 23 23 24 26 27 27 28 30 33 35 37 37 40 42 61 80 88 91 94 95 93 94 92 91 96 99 99 99 98 98 98 95 93 90 84
39 38 35 31 28 28 28 27 26 27 29 30 30 29 28 29 31 33 37 40 41 47 51 73 90 94 98 98 93 90 91 92 97 98 99 99 99 99 99 99 98 97 90
42 37 33 30 30 30 29 29 30 31 31 31 30 29 29 30 32 33 34 36 43 47 55 60 85 93 99 99 94 86 87 95 99 99 99 98 99 99 99 99 99 98 95
40 35 32 33 33 32 31 32 32 32 31 31 31 30 30 32 34 36 38 38 39 50 56 63 74 91 99 99 96 85 83 93 99 99 98 98 98 99 99 99 99 98 98

GFSGL_prec_cthk_060.txt.gz
RH
50 50 50 56 58 70 77 85 89 93 93 95 93 96 96 93 96 96 96 95 94 94 93 88 80 73 66 50 38 29 28 29 33 30 41 47 48 47 47 45 40 34 31
46 50 53 56 62 72 78 85 91 91 91 99 98 98 97 90 93 94 97 94 92 95 90 84 76 70 59 44 33 30 30 34 39 39 45 49 57 60 55 49 42 41 35
54 55 59 61 64 70 78 84 85 95 98 97 93 98 96 87 83 97 89 86 88 90 84 81 71 65 49 37 32 34 35 39 42 48 47 54 61 65 55 52 49 44 42
61 60 59 61 61 61 61 61 66 75 76 87 77 76 77 75 90 95 91 92 90 89 83 69 58 47 42 31 35 38 40 43 47 52 53 57 66 65 60 54 53 50 43
65 64 64 62 58 56 55 59 64 67 65 63 69 75 74 83 89 94 97 97 91 84 70 57 48 37 26 26 31 35 43 48 52 56 57 59 61 64 61 60 57 50 48
67 66 64 57 58 57 56 57 59 61 62 68 78 77 80 86 92 97 96 88 76 65 52 41 39 39 32 27 29 34 40 50 54 58 58 61 62 65 62 60 60 55 52
59 57 53 50 47 46 49 53 60 66 68 70 77 82 87 89 91 82 68 57 49 42 40 38 39 41 41 39 43 43 45 49 53 59 58 60 63 63 63 63 62 63 58
45 43 43 44 48 51 56 62 65 66 70 75 80 81 81 75 64 53 44 37 35 31 31 36 36 37 46 53 53 57 59 58 57 55 54 59 64 66 68 66 65 67 65
41 44 47 52 54 55 59 63 69 71 75 79 76 68 59 51 41 34 31 28 29 29 32 37 38 40 45 48 52 56 57 59 64 59 65 65 65 68 65 69 72 72 69
47 50 52 54 55 59 63 66 66 63 61 57 49 42 35 32 29 26 26 28 30 33 31 34 35 36 34 42 52 58 67 63 73 72 66 67 72 71 67 70 78 78 73
49 52 55 60 63 62 61 58 52 47 41 36 34 34 33 34 33 30 30 31 30 28 28 28 32 35 40 41 53 63 64 70 74 79 85 85 85 78 79 79 84 84 79
55 59 61 60 59 56 50 44 40 41 41 42 39 34 36 35 33 27 21 16 14 18 17 17 18 24 33 42 49 54 64 74 81 88 90 91 90 84 86 89 92 89 82
59 59 57 54 49 45 41 38 41 41 40 37 35 37 36 34 31 28 25 18 13 12 14 15 15 17 17 27 47 71 63 83 95 93 98 93 93 87 88 94 97 93 86
59 55 50 47 43 40 39 40 42 38 34 35 38 37 35 32 29 26 23 23 20 15 17 18 20 19 19 21 25 44 76 79 79 90 94 92 95 87 89 96 97 96 86
53 50 47 43 41 42 44 41 37 36 34 32 35 32 30 29 27 19 18 19 17 16 19 21 24 30 32 35 41 44 75 83 89 90 92 89 88 86 91 97 99 96 86
51 48 46 46 47 46 44 43 39 37 34 31 28 25 22 20 18 16 13 12 14 17 25 33 34 35 39 49 51 56 74 88 84 87 84 84 85 86 93 97 99 94 86
51 50 51 51 48 43 42 46 47 45 37 33 26 23 21 19 15 13 12 12 15 21 33 39 39 42 51 59 55 56 74 88 84 85 84 85 85 90 96 97 98 91 85
55 55 54 49 44 43 43 43 45 43 40 35 33 24 20 17 15 14 14 15 20 23 33 44 50 56 67 72 79 80 77 83 83 82 86 85 89 94 97 97 97 90 83
62 57 51 47 45 44 43 41 41 40 37 35 33 30 24 17 16 19 22 26 25 25 27 39 51 65 72 77 86 88 87 86 83 85 90 90 93 96 97 98 95 89 82
57 54 51 48 46 45 42 39 37 40 38 37 33 29 21 18 24 26 28 29 29 28 28 31 45 61 76 84 88 89 90 89 88 92 93 92 95 98 98 99 95 88 82
57 54 50 48 47 45 41 38 36 38 37 34 32 29 22 21 28 30 31 32 32 31 31 32 36 55 73 84 89 91 92 90 90 93 91 94 98 99 99 98 95 90 86
56 53 52 51 48 44 40 38 35 35 34 31 31 30 24 29 31 31 32 32 32 33 35 36 38 44 67 82 90 92 99 96 97 95 92 96 99 99 99 98 97 92 89
57 56 55 51 46 43 40 38 36 34 31 30 30 29 30 32 32 33 33 33 32 32 33 37 39 42 55 82 91 95 99 98 96 97 95 99 99 99 99 99 97 94 92
60 57 53 49 45 43 41 39 35 34 32 31 30 32 33 33 34 34 33 33 32 33 32 32 38 45 50 73 92 99 99 97 90 92 95 99 99 99 99 99 99 98 98
59 57 53 49 48 45 42 38 37 36 33 31 32 32 34 34 35 35 34 34 34 37 37 37 39 47 54 62 91 99 99 98 89 90 98 99 99 99 99 99 99 99 99
61 58 56 54 52 46 42 40 39 34 33 33 33 34 36 36 36 36 37 40 46 50 52 51 46 50 58 62 84 99 99 99 87 87 99 99 99 99 99 99 99 99 99

GFSGL_prec_cthk_063.txt.gz
RH
72 69 67 66 64 68 70 72 73 79 81 85 91 88 98 99 97 97 98 95 93 97 98 94 90 88 87 85 80 73 62 51 42 35 36 36 40 49 50 51 49 48 47
73 71 58 54 58 63 67 74 71 73 75 76 75 81 95 93 94 96 94 94 96 90 94 91 85 89 89 85 78 63 47 43 40 37 35 41 47 52 52 54 53 50 50
61 57 55 57 63 68 66 64 63 65 70 67 66 77 91 79 80 79 72 76 76 82 80 84 92 93 89 74 53 47 43 41 43 46 43 45 52 56 58 59 57 57 54
57 59 64 66 66 64 67 67 66 65 61 63 67 65 70 68 69 73 75 75 76 81 91 95 88 79 65 50 47 45 42 42 47 51 51 51 56 58 66 65 65 62 59
52 57 64 69 70 72 75 74 66 60 63 64 64 61 64 70 70 74 75 80 84 88 86 78 63 54 48 43 41 36 37 41 46 51 54 57 57 60 64 65 70 70 59
67 70 74 79 76 73 67 62 59 58 60 61 63 64 69 69 71 78 82 81 78 69 61 51 49 49 47 47 48 42 38 38 40 48 49 56 60 61 63 71 72 71 64
70 71 71 67 62 55 51 46 48 53 55 62 66 68 71 75 78 77 69 59 53 46 42 43 42 42 44 44 44 44 46 47 52 53 57 56 64 67 69 71 75 73 72
57 57 55 53 47 43 45 49 53 57 60 65 69 72 72 69 66 55 45 41 39 39 37 40 41 39 37 40 42 42 51 59 67 72 74 66 68 64 70 79 78 75 71
53 52 48 43 42 43 47 51 55 59 62 65 64 63 58 53 48 42 37 35 36 36 35 33 34 34 31 31 35 40 41 46 59 82 84 80 80 68 76 86 84 85 72
48 42 42 43 46 48 52 56 56 57 57 56 51 45 42 41 44 42 38 37 34 33 29 28 25 26 27 31 33 35 39 49 56 72 87 86 85 72 82 87 87 83 81
41 43 46 47 49 54 55 55 53 49 46 46 40 44 46 45 44 42 36 30 27 23 20 18 19 21 19 18 19 26 31 36 50 59 66 80 79 79 84 86 82 80 83
45 47 49 50 51 53 52 49 46 45 44 44 45 44 43 43 43 40 35 31 27 23 20 17 14 12 12 11 13 13 15 22 43 54 67 73 85 93 98 95 86 83 83
49 50 52 54 54 50 47 45 43 43 44 46 44 44 43 44 41 38 35 25 21 19 17 13 11 9 9 13 15 17 19 22 28 48 78 75 95 95 93 90 92 91 88
53 54 56 54 50 46 45 44 46 48 45 43 43 44 44 41 39 34 25 22 21 18 15 12 13 17 22 25 31 36 36 34 29 34 62 77 86 89 88 86 88 87 89
58 58 55 51 50 49 49 48 47 45 40 37 40 38 35 32 33 27 26 23 20 18 15 18 25 27 30 33 43 47 46 58 47 53 78 88 92 92 90 88 86 87 91
60 58 55 52 50 52 53 53 50 43 40 39 38 35 33 31 30 29 26 23 21 18 18 24 22 29 35 38 38 48 61 68 62 73 82 87 88 86 86 88 86 89 96
62 58 55 52 55 58 56 54 48 50 49 46 43 38 34 33 31 28 25 23 22 22 23 24 26 28 36 47 54 60 65 80 82 80 88 86 85 88 88 86 89 94 97
63 60 59 64 64 59 56 51 55 55 53 51 48 44 41 35 30 28 25 23 26 25 27 28 27 26 32 44 60 71 79 87 88 86 86 91 89 88 88 89 92 97 98
64 66 65 63 58 54 53 53 56 56 55 52 49 47 46 38 30 32 32 29 27 27 31 30 30 30 29 36 52 69 79 86 89 95 93 88 86 91 92 93 96 98 98
72 68 64 61 60 59 57 57 59 59 56 52 49 47 43 36 31 35 32 29 28 30 29 30 32 32 32 32 42 65 81 89 94 99 99 91 91 94 94 96 98 99 99
76 69 66 63 62 59 57 59 60 58 55 51 49 47 43 37 36 36 33 31 31 30 30 31 32 34 35 36 38 54 83 90 94 99 98 88 96 97 96 99 99 99 99
73 70 67 64 62 61 59 57 60 57 54 51 49 47 42 39 38 35 32 34 32 32 32 32 33 33 35 39 41 46 72 91 94 99 95 94 96 95 99 99 99 99 99
71 68 66 66 63 62 64 64 61 57 55 52 49 46 43 41 36 34 34 34 34 34 34 35 35 35 36 39 46 49 62 89 95 99 98 97 99 98 99 99 99 99 99
71 70 69 68 70 63 67 66 64 61 58 53 49 47 43 37 36 36 37 37 37 37 39 41 43 46 45 44 49 55 57 84 94 99 99 94 96 98 99 99 99 99 99
74 74 75 76 74 73 72 70 68 63 56 53 50 43 38 38 39 40 40 40 40 41 44 48 50 53 54 50 48 54 58 77 95 99 99 89 88 95 99 99 99 99 99
82 81 80 78 76 75 74 70 65 60 57 53 45 42 42 43 44 43 42 43 44 47 48 52 52 54 55 53 51 58 63 77 97 99 99 90 89 97 99 99 99 99 99

GFSGL_prec_cthk_066.txt.gz
RH
62 63 61 63 65 73 82 79 66 75 80 81 74 77 77 76 68 72 84 92 97 85 80 84 88 86 91 80 82 85 83 79 59 44 38 35 35 37 38 42 44 48 42
70 78 77 84 85 75 63 68 72 77 81 77 74 72 72 71 69 73 84 82 79 71 71 72 75 75 79 84 80 77 71 57 51 39 38 40 38 37 39 41 46 52 50
71 83 79 77 74 65 66 68 72 72 72 73 73 76 71 66 64 69 71 71 68 72 73 75 74 80 82 75 66 60 56 52 50 49 44 46 48 51 50 50 54 57 58
57 62 62 62 66 60 60 66 72 72 76 78 78 69 63 63 65 66 67 69 71 71 75 78 79 73 64 55 53 51 48 50 51 49 50 51 52 55 54 62 62 64 59
51 52 51 54 57 68 77 79 80 80 76 73 64 58 58 61 63 66 67 69 72 78 79 75 66 53 49 49 50 51 51 49 46 44 41 43 50 53 57 60 64 72 63
53 56 59 65 78 81 80 81 76 70 64 56 57 56 61 62 64 67 71 75 74 71 64 49 47 48 49 51 56 54 52 52 51 53 54 53 55 61 69 73 75 75 64
60 69 75 80 78 75 77 67 58 51 47 49 53 57 60 63 66 69 67 62 53 43 43 42 42 43 43 40 38 37 37 41 44 44 50 57 62 66 73 80 82 81 70
68 70 69 64 60 60 57 53 47 46 50 53 55 60 62 61 61 57 50 41 39 39 40 43 42 40 39 37 34 32 32 33 36 44 48 57 64 74 79 88 86 79 61
53 53 54 57 56 53 46 41 43 48 51 56 57 55 54 54 48 45 43 41 39 38 37 35 33 30 28 29 28 26 24 22 23 27 35 48 65 72 79 88 88 85 63
53 54 53 54 47 41 41 45 48 50 52 54 55 51 46 43 43 45 44 41 37 32 31 28 25 22 20 19 17 16 15 12 13 12 22 33 51 70 77 89 82 75 80
52 54 48 42 43 44 47 49 51 52 53 50 45 43 46 46 46 43 39 36 33 31 29 25 23 21 20 17 15 14 13 12 11 13 11 11 27 53 66 63 85 82 81
54 44 42 44 46 47 49 50 49 50 50 49 47 46 45 46 44 41 39 36 35 31 27 25 23 21 19 18 21 23 25 23 22 22 22 24 21 47 63 66 82 90 85
48 44 45 46 47 50 51 50 50 51 49 48 48 48 49 48 44 43 39 37 33 29 27 26 24 21 21 21 21 24 27 36 41 42 39 34 22 30 65 83 92 95 81
48 49 50 51 53 52 49 48 49 49 49 48 48 48 47 45 43 39 38 34 31 30 29 27 24 24 25 21 20 22 26 33 48 50 51 53 40 38 71 84 91 93 84
54 56 57 57 56 53 52 49 50 53 52 50 48 45 44 44 41 39 37 34 33 32 29 27 30 29 24 20 17 24 34 38 45 59 65 58 56 65 74 94 98 91 86
60 62 63 62 62 59 57 56 59 61 57 52 47 47 46 44 42 40 39 36 34 33 32 34 33 29 25 20 21 24 35 47 54 65 74 73 75 89 92 92 92 88 88
66 67 67 66 66 63 60 63 68 65 61 56 55 54 49 48 44 42 40 37 37 40 40 37 33 28 24 23 24 26 31 52 72 80 83 82 95 94 95 94 89 91 87
69 73 73 70 68 64 68 68 62 61 61 63 62 61 59 57 50 45 41 42 43 40 39 36 31 27 26 27 27 28 30 43 66 86 91 93 95 95 98 97 96 90 90
80 77 74 68 74 74 68 63 63 64 64 67 65 64 61 58 52 46 49 47 44 41 38 33 29 28 28 29 31 32 33 36 56 78 89 91 95 99 96 95 96 94 95
76 78 83 82 78 74 74 71 70 71 70 70 67 64 61 55 50 47 48 47 44 41 35 31 29 30 30 32 32 34 36 35 45 78 90 93 99 98 98 97 97 97 98
96 92 85 84 82 78 76 73 71 70 69 68 66 63 61 59 54 51 50 46 41 37 33 32 33 33 33 33 34 35 36 38 43 67 89 97 99 99 96 96 99 98 99
90 87 86 81 78 77 73 71 70 69 70 70 69 67 65 59 56 52 47 43 38 35 36 36 36 37 37 39 39 37 37 41 45 58 86 95 99 99 96 95 99 99 98
87 84 80 78 78 77 74 77 76 75 74 73 70 66 64 60 54 51 48 41 39 39 39 39 39 39 41 45 48 49 45 45 51 55 82 95 99 99 96 98 99 99 98
84 81 80 79 80 79 77 79 76 76 73 69 67 64 61 59 57 55 48 43 42 41 40 40 40 42 46 50 53 55 52 49 53 57 72 93 99 99 98 99 99 99 99
80 80 81 82 82 80 78 75 72 70 68 66 63 63 64 63 60 53 46 44 42 40 42 42 46 48 51 51 52 54 55 53 57 62 67 89 99 99 99 99 99 99 99
84 83 81 79 76 74 74 73 70 67 65 67 68 66 64 59 52 46 44 42 43 45 46 49 52 54 54 53 54 57 58 56 59 65 69 91 98 99 96 96 98 99 99

GFSGL_prec_cthk_069.txt.gz
RH
51 47 52 60 60 65 73 84 93 93 90 82 79 80 75 71 72 76 77 67 67 63 64 67 72 69 72 72 77 76 78 75 61 51 49 46 45 41 38 38 39 42 45
54 61 75 75 76 89 97 95 86 73 72 69 74 68 71 74 77 79 66 63 57 66 70 73 69 71 72 76 76 76 65 58 54 49 50 47 44 43 44 46 51 51 58
73 83 90 77 91 78 76 75 80 73 72 72 76 77 77 77 76 62 56 64 64 72 67 69 73 73 77 77 71 61 55 54 55 54 47 44 43 46 46 51 53 50 67
45 57 68 66 71 77 77 70 66 68 76 78 81 81 76 68 60 56 59 64 63 67 69 69 76 78 72 63 54 51 50 52 53 55 51 48 51 47 52 52 50 48 58
41 49 51 53 58 62 62 66 70 80 80 79 80 73 65 58 53 61 62 66 68 70 71 75 74 64 50 49 51 55 59 58 59 57 52 52 50 50 51 54 68 75 83
45 45 48 49 54 56 61 75 83 81 76 74 67 60 52 52 58 62 65 65 67 71 70 61 48 44 45 47 49 50 49 47 47 50 50 50 45 43 47 57 64 75 76
46 49 52 53 56 64 72 72 73 65 60 58 52 46 50 54 57 61 64 66 64 56 46 40 40 41 39 39 37 37 36 36 37 39 37 37 39 42 47 50 59 74 75
40 44 48 52 58 60 59 54 52 50 51 50 46 49 51 54 59 61 60 53 45 38 37 39 39 38 39 38 35 31 29 27 25 25 26 27 31 37 40 38 53 59 73
41 47 52 54 52 50 50 51 51 50 44 44 47 50 52 55 57 54 46 42 39 41 42 40 36 35 33 30 28 25 24 22 19 18 16 13 12 11 18 40 43 58 73
43 42 44 48 50 50 50 49 44 43 45 46 48 50 50 50 49 46 44 46 45 42 38 35 36 34 32 30 28 26 23 23 24 22 20 17 14 10 10 10 26 51 72
41 44 48 50 51 51 47 42 42 44 47 50 49 46 46 46 47 48 50 47 42 38 37 39 38 35 33 31 30 29 30 29 28 27 26 27 24 24 19 20 20 40 70
46 48 51 53 53 49 43 44 46 50 53 51 48 45 46 49 50 50 49 45 41 41 40 39 38 36 33 31 29 28 29 30 28 28 25 26 32 35 37 26 26 47 64
52 54 54 55 55 49 47 49 52 54 51 47 47 48 48 53 57 57 53 48 45 43 41 40 38 37 34 31 30 30 28 27 31 31 28 28 39 46 51 41 32 46 67
58 59 59 59 54 52 53 54 56 55 52 53 54 55 56 60 59 56 50 47 45 43 43 41 40 38 36 34 32 29 25 23 24 29 36 35 43 56 56 46 38 61 86
63 63 64 64 62 61 63 62 56 55 59 61 59 58 61 59 54 50 49 48 46 46 45 44 42 41 38 35 33 29 24 16 16 27 44 48 54 66 68 72 70 77 92
69 70 72 74 71 68 66 64 62 63 63 60 60 65 58 56 56 53 51 53 52 49 48 47 48 46 43 39 32 26 20 17 18 23 49 60 68 72 74 85 96 99 96
80 81 80 77 75 72 71 70 69 67 65 74 71 67 63 62 61 61 59 57 53 52 53 52 50 48 44 36 29 23 19 20 22 24 36 70 79 78 95 99 91 91 91
85 86 85 81 78 80 77 72 74 83 80 74 74 78 76 71 71 70 67 62 58 55 54 53 51 46 38 30 25 22 22 23 25 26 31 59 85 90 89 99 99 96 92
91 86 86 88 83 81 84 88 82 79 82 83 82 81 80 77 74 69 67 60 61 61 58 52 46 40 34 30 28 27 26 26 27 28 31 39 74 90 92 96 95 96 95
95 94 89 90 95 95 90 91 88 86 85 85 84 85 81 77 72 69 65 64 65 60 53 48 43 40 35 31 30 30 29 28 27 28 33 37 61 85 93 98 97 98 94
97 97 97 97 97 97 95 90 88 88 84 84 84 80 77 75 74 72 70 65 59 55 52 50 46 42 35 32 34 34 34 34 36 34 36 38 54 85 92 98 99 98 95
97 97 97 97 96 93 89 88 85 84 84 82 80 79 77 75 72 66 61 59 58 56 54 53 49 40 36 37 37 37 38 41 46 43 39 42 49 86 98 99 98 97 93
97 97 96 94 91 89 90 87 85 83 80 78 75 71 69 66 63 61 60 59 58 57 56 52 43 38 39 39 42 42 45 48 50 50 46 48 52 76 94 99 99 96 95
97 93 90 88 86 85 84 82 80 75 73 71 69 68 66 64 63 63 63 61 58 57 52 43 40 41 42 44 45 49 52 52 52 52 51 51 53 75 95 99 99 97 98
87 85 85 85 83 81 78 76 73 71 69 66 65 64 65 67 65 65 61 57 53 47 41 41 44 46 49 50 53 56 55 54 53 54 53 55 57 69 94 99 99 98 99
85 82 80 77 75 73 72 70 67 65 63 62 62 61 59 57 56 53 52 49 44 41 43 46 50 54 56 59 60 60 59 57 58 58 56 57 60 65 94 99 99 99 99

GFSGL_prec_cthk_072.txt.gz
RH
60 57 62 59 59 61 65 72 82 94 95 95 86 83 93 91 84 81 84 83 81 65 68 61 59 63 65 66 67 67 69 72 67 65 58 47 44 45 45 43 39 37 38
75 80 84 85 87 86 78 87 94 92 91 78 83 86 89 85 84 84 85 76 69 62 60 59 67 72 65 67 68 72 71 71 67 54 45 43 45 46 46 43 43 45 46
76 83 75 68 87 90 96 94 91 81 67 72 76 85 88 85 87 84 79 70 63 58 60 66 66 64 68 70 71 73 71 64 50 46 45 46 44 45 46 48 49 52 52
70 68 45 46 57 83 79 78 74 68 67 74 82 86 82 81 86 81 76 63 57 64 63 67 67 69 73 70 70 66 53 46 45 46 45 45 46 46 56 56 47 49 52
49 43 42 45 49 59 59 63 63 62 70 79 87 87 86 81 80 73 64 63 64 64 68 69 70 70 70 64 51 44 44 42 44 44 44 42 44 43 43 45 50 50 47
51 48 40 41 48 51 52 58 59 67 73 80 81 80 77 73 65 55 53 61 63 67 69 68 70 64 53 44 43 43 43 44 45 46 46 45 44 43 42 44 45 46 46
46 39 38 43 47 50 54 56 61 68 73 76 70 65 64 61 52 55 60 63 66 65 67 63 51 42 39 40 40 40 42 42 41 39 37 34 29 26 24 27 30 34 35
39 42 44 46 49 55 59 60 65 68 64 60 60 58 54 50 55 59 60 62 62 60 50 43 39 39 41 40 38 38 37 36 34 32 30 28 27 26 25 22 20 18 18
46 45 45 50 55 57 61 59 54 54 54 52 54 51 49 52 54 56 58 56 50 43 42 42 44 44 41 38 37 36 35 35 34 33 32 31 31 31 32 31 26 24 19
45 46 52 57 58 52 48 52 53 53 53 52 48 47 50 53 55 54 49 44 42 43 47 48 44 42 40 40 39 37 37 36 34 33 33 31 31 28 29 37 36 33 32
49 51 51 51 52 53 51 51 52 53 53 51 50 50 52 53 50 47 45 45 49 51 50 48 45 44 44 43 41 40 39 36 35 33 32 32 33 32 27 30 38 46 40
49 50 52 52 54 54 55 55 56 56 54 52 54 55 54 51 48 48 51 55 54 53 51 50 48 48 48 47 45 44 42 40 37 33 31 32 32 29 24 25 37 48 51
55 56 58 56 58 60 61 61 63 62 58 58 58 58 57 54 53 54 58 59 56 53 50 49 51 51 51 50 49 47 44 40 37 34 32 31 27 28 26 29 43 49 48
61 64 65 63 62 62 64 67 69 70 70 69 67 63 58 56 57 61 60 58 56 54 56 56 56 54 55 54 52 49 46 43 40 37 31 24 19 29 34 44 49 56 61
71 72 73 75 74 72 70 73 75 79 80 75 70 67 65 63 64 67 73 63 61 60 58 59 61 61 60 57 53 50 47 45 40 33 24 17 19 31 39 50 59 64 77
77 79 81 83 83 82 82 84 85 84 80 75 71 67 66 70 79 72 71 65 65 66 67 68 67 64 62 58 56 53 49 42 32 24 20 20 22 26 42 56 69 74 81
80 83 85 88 87 86 83 82 84 81 79 76 75 77 85 81 74 69 72 76 73 72 71 70 69 65 65 64 59 54 44 34 28 24 21 22 24 26 43 62 83 96 92
86 94 93 94 94 95 91 87 89 85 87 94 93 90 88 91 91 90 90 88 82 77 74 74 73 72 69 65 56 46 39 34 31 26 23 23 25 27 37 69 81 95 98
87 87 89 87 89 91 93 95 95 96 96 95 96 96 96 97 97 97 93 87 81 78 78 77 75 71 64 55 47 43 39 36 33 28 27 26 24 28 34 65 86 92 99
87 87 89 91 93 95 96 97 97 97 96 97 97 97 97 97 97 92 88 85 81 79 76 71 65 59 55 51 47 43 40 39 32 31 32 31 29 31 37 50 80 91 99
89 92 95 96 97 97 97 97 97 97 97 97 97 97 97 97 94 92 87 79 73 71 67 62 60 59 56 51 48 46 43 37 35 35 36 38 39 38 41 48 73 93 98
96 96 96 96 96 97 97 97 97 97 97 97 97 97 95 88 82 77 73 72 69 67 65 63 62 59 55 51 49 45 38 36 38 40 41 44 48 45 45 49 82 93 99
96 96 96 97 97 97 97 97 97 96 94 91 85 79 77 74 71 68 67 66 67 67 66 64 61 55 51 50 47 41 40 42 44 46 48 50 52 49 51 53 82 96 99
96 96 95 95 94 93 90 88 84 79 75 72 70 70 69 69 67 65 64 63 62 59 58 54 49 48 47 46 44 47 49 50 52 55 56 54 52 52 53 58 83 98 99
91 90 89 86 82 77 72 67 64 62 62 61 59 58 56 56 55 54 54 54 54 53 49 49 48 45 46 48 51 55 58 62 63 62 60 56 54 55 55 59 78 96 99
78 72 64 58 53 50 49 47 45 44 43 42 41 41 43 44 45 46 47 47 48 47 47 46 44 48 52 56 61 64 67 69 68 67 63 60 59 56 57 61 82 96 99

GFSGL_prec_cthk_075.txt.gz
RH
60 58 57 56 58 60 59 61 69 81 88 96 97 95 94 93 89 89 91 95 89 86 82 74 74 58 66 58 56 64 61 61 60 61 65 68 67 55 42 42 43 45 46
76 84 88 84 74 77 76 79 78 80 83 90 83 80 75 79 87 89 89 92 89 89 83 71 72 60 58 60 65 67 66 66 65 63 65 65 50 43 43 45 43 42 42
66 76 75 75 69 56 58 72 82 83 95 80 71 69 78 78 88 90 91 85 86 82 79 76 64 61 60 65 66 66 70 70 68 68 62 47 45 46 44 43 42 41 42
45 59 63 78 55 51 54 65 80 78 76 72 74 77 77 80 82 85 87 83 79 79 78 68 65 60 63 65 68 72 74 74 69 53 48 46 45 44 43 41 39 40 40
44 53 57 58 61 57 53 54 58 61 64 68 73 72 73 79 82 81 80 80 79 70 61 67 66 63 63 72 73 73 72 61 50 49 48 47 48 46 44 41 39 36 34
39 48 58 65 63 54 50 54 54 58 64 64 66 74 77 79 80 79 78 76 72 67 63 59 63 66 71 74 73 72 55 50 51 50 49 48 45 41 35 31 30 29 27
41 50 57 56 54 52 52 50 55 61 67 69 70 77 78 80 76 76 73 69 61 60 62 67 69 71 74 72 66 52 52 51 47 45 45 42 39 37 35 35 36 37 34
42 48 52 52 52 52 48 51 57 62 67 69 81 82 74 73 70 69 65 59 61 64 67 70 72 68 67 55 50 52 51 45 43 42 43 43 42 41 40 39 40 39 37
41 50 55 53 53 49 51 59 64 68 73 71 68 70 69 70 68 65 62 62 65 68 69 69 65 55 50 53 51 49 46 44 45 47 47 46 44 43 43 44 42 47 42
44 50 53 51 52 56 62 66 65 62 62 62 63 64 64 63 64 65 64 65 65 66 65 54 49 51 52 50 50 49 46 46 49 49 49 47 46 45 45 47 48 50 43
48 50 49 51 56 57 59 59 59 60 62 62 65 65 65 66 65 65 66 68 66 58 53 51 51 52 51 51 52 51 50 52 54 53 52 50 48 46 45 46 46 45 41
53 54 57 57 57 60 61 62 64 64 63 65 67 69 70 70 69 69 68 64 61 60 58 55 54 56 54 56 56 56 58 58 58 58 56 52 50 48 46 42 39 36 37
62 63 63 63 64 65 66 68 70 69 70 71 73 75 77 79 78 74 73 69 66 64 62 59 58 56 60 58 63 63 63 65 62 58 56 55 53 49 44 35 29 29 37
69 70 68 69 71 71 73 76 77 77 79 81 83 86 90 91 89 84 77 72 67 64 62 67 69 67 67 67 67 69 68 66 62 61 59 57 54 48 39 29 20 27 36
79 78 77 78 80 81 82 82 81 82 85 88 91 93 93 89 84 79 77 74 77 81 76 71 69 69 72 76 76 72 70 68 66 65 62 58 53 44 32 22 20 29 46
86 88 89 90 92 88 85 87 89 91 95 97 95 94 90 85 78 77 76 83 82 78 71 70 74 77 80 81 78 73 72 72 70 67 63 58 47 34 25 20 21 33 49
97 98 96 96 90 97 97 97 97 96 92 85 80 79 81 81 86 93 92 86 88 89 93 92 87 87 86 85 83 84 81 74 71 66 60 47 38 32 25 19 21 29 53
92 94 87 81 79 81 92 92 93 91 90 89 90 93 96 97 97 97 97 97 97 96 96 95 94 93 92 90 87 82 76 73 67 54 47 43 38 34 25 21 23 28 49
79 78 82 84 85 85 86 87 88 91 94 97 97 97 97 98 98 98 98 98 98 98 98 98 97 94 89 83 80 78 69 57 52 50 46 43 41 33 27 27 26 31 45
82 80 80 81 85 91 94 96 98 97 97 98 98 97 97 97 97 98 98 98 98 98 96 92 87 83 79 76 68 61 57 55 52 49 47 44 36 33 34 32 33 35 44
83 92 97 97 96 96 97 97 97 97 96 96 97 97 97 97 98 98 98 98 93 86 78 73 70 66 65 65 64 59 56 54 52 47 44 39 37 39 39 40 40 43 50
97 97 97 96 96 96 97 97 97 97 97 97 97 97 97 96 92 85 77 71 69 67 66 65 64 62 62 60 54 51 49 48 49 47 42 42 43 44 46 47 49 50 53
96 96 96 96 95 95 96 96 96 95 92 87 81 73 67 64 63 63 62 59 57 56 56 57 56 56 55 52 51 49 47 48 46 46 48 49 51 52 54 55 55 54 58
94 92 91 90 89 87 83 78 72 65 58 55 54 53 51 50 49 47 45 43 43 44 44 45 47 47 46 46 47 49 50 49 52 55 57 59 60 61 60 58 55 58 65
87 83 78 72 63 55 50 46 43 41 39 38 37 36 34 33 34 35 36 38 40 42 44 45 46 46 47 47 50 53 56 60 63 67 68 69 69 68 64 58 57 60 72
57 47 42 39 36 33 32 31 31 30 29 28 27 27 30 33 35 37 39 41 42 44 45 48 49 50 50 53 58 63 68 72 75 75 74 74 73 68 65 63 60 61 73

GFSGL_prec_cthk_078.txt.gz
RH
55 46 45 48 51 52 52 52 51 56 57 60 70 80 88 91 92 88 96 93 91 94 92 92 98 94 88 92 74 72 63 57 59 65 65 68 70 68 71 69 58 49 46
65 72 74 71 71 66 64 64 64 63 72 75 80 93 91 83 81 85 88 91 90 90 90 94 97 89 93 84 72 63 67 61 65 67 64 70 73 73 64 47 46 47 49
62 66 75 79 83 77 69 53 58 65 82 85 86 85 87 89 71 70 77 80 81 87 89 97 94 92 83 72 78 70 66 66 68 66 70 74 74 60 48 46 44 44 45
45 48 52 65 79 78 76 60 57 62 80 84 79 75 72 73 74 75 79 86 85 87 85 91 88 82 79 74 69 69 73 69 71 71 75 74 61 52 49 46 44 44 42
39 41 44 53 64 69 72 73 61 57 59 66 79 87 77 75 73 76 81 79 78 88 84 85 83 81 65 68 66 67 68 70 74 75 71 62 55 52 48 44 41 40 41
37 39 40 43 53 65 70 66 61 54 53 56 63 72 76 66 66 75 79 85 84 85 81 77 70 72 65 78 68 69 71 74 72 69 64 54 51 48 44 44 44 43 41
38 35 44 44 53 59 59 56 52 50 52 52 56 63 70 72 72 77 79 79 79 75 73 72 67 70 68 63 70 72 73 72 65 58 52 50 48 47 47 47 49 47 46
44 40 42 45 49 54 56 54 52 55 50 51 57 62 66 69 72 75 74 74 76 74 71 70 67 63 65 71 71 70 65 58 51 49 49 49 51 51 52 52 51 50 52
45 41 42 46 51 56 63 60 58 57 60 63 67 69 73 75 70 70 71 73 71 70 68 65 66 68 68 71 67 65 56 49 48 52 52 54 55 56 57 56 57 57 52
45 44 47 52 56 60 55 52 60 63 67 71 72 70 69 69 70 72 73 74 73 71 70 70 72 74 74 72 64 57 52 50 52 53 57 59 57 59 61 64 60 61 61
48 51 54 57 57 56 58 63 66 70 70 71 72 73 73 73 73 74 75 75 77 78 80 83 85 82 71 62 56 53 51 55 61 65 63 56 63 71 67 63 63 62 60
55 58 59 60 62 64 69 69 68 68 70 73 76 78 79 78 79 81 84 86 89 93 93 89 79 71 64 57 54 58 65 62 61 63 63 74 72 69 66 65 64 60 59
61 62 64 65 68 70 70 72 72 72 73 78 82 83 84 84 86 89 91 94 96 92 84 77 70 64 62 64 70 69 70 70 74 79 79 75 73 70 69 67 64 59 56
69 75 76 75 75 76 76 77 79 81 82 82 83 84 87 89 90 93 96 96 94 88 81 77 75 76 79 79 82 83 79 82 87 82 81 75 74 76 71 67 62 59 53
80 80 81 80 80 83 86 88 91 92 93 95 97 98 97 96 97 97 97 96 91 84 77 78 81 83 83 81 78 77 84 89 85 80 81 85 80 75 70 67 62 55 43
84 86 88 86 88 90 94 98 97 97 94 90 93 97 97 97 97 97 97 89 81 82 87 91 90 90 87 86 89 92 93 91 92 93 89 82 79 75 70 66 55 41 30
91 92 91 89 90 93 93 92 90 92 86 83 86 85 85 86 85 84 89 95 96 96 97 97 97 97 97 97 98 98 98 98 95 90 84 82 77 71 60 47 41 35 27
95 93 91 93 93 88 87 87 82 79 82 84 85 88 90 92 94 96 96 95 95 94 96 97 97 98 98 98 98 98 98 92 86 81 75 67 58 51 48 44 39 31 24
95 91 88 85 83 83 81 79 78 81 86 91 93 93 94 95 96 95 95 96 97 97 97 97 98 98 98 97 92 82 75 71 67 59 55 52 53 51 46 43 37 33 27
89 85 83 81 80 79 81 89 94 95 96 96 95 95 95 96 96 97 97 97 98 98 98 91 83 77 75 74 71 68 64 61 58 56 53 52 51 49 45 43 39 34 33
83 82 83 85 86 91 96 95 95 95 96 96 96 96 97 97 96 94 88 80 73 69 67 65 64 62 60 59 58 58 58 56 54 53 53 51 50 50 49 45 41 41 39
93 97 96 96 96 95 95 95 95 95 95 93 89 82 74 67 62 59 57 55 54 52 51 48 46 45 45 46 47 49 49 48 52 54 53 54 54 54 51 49 48 48 48
96 96 96 96 94 92 89 86 81 73 65 58 52 48 45 43 41 39 38 36 35 33 33 34 34 35 39 43 45 45 44 47 52 55 56 57 57 58 59 59 59 58 58
94 92 89 85 79 69 59 51 46 42 38 36 35 34 33 32 32 31 30 30 31 33 35 37 39 40 42 44 47 51 52 55 58 61 62 63 67 69 69 69 69 67 63
78 67 56 48 44 40 37 34 33 31 30 30 29 29 28 27 26 27 29 31 32 33 35 38 40 43 45 48 50 54 60 63 66 69 72 74 76 77 77 77 74 69 63
45 41 38 35 33 32 31 30 28 28 26 25 23 22 22 23 25 27 29 31 33 35 39 42 44 47 50 53 58 63 70 75 78 80 82 82 83 83 82 79 73 69 66

GFSGL_prec_cthk_081.txt.gz
RH
41 41 43 45 47 49 48 50 50 53 53 55 58 60 64 69 71 66 79 86 89 94 95 86 87 98 97 96 98 93 98 95 78 72 69 68 64 69 68 67 68 69 67
58 54 54 49 49 50 52 54 54 56 57 60 63 65 66 65 74 86 92 93 89 92 95 96 95 95 93 93 97 98 95 86 81 68 76 68 68 70 70 69 69 58 48
60 64 68 66 66 65 70 69 60 57 60 57 63 72 78 83 88 88 95 91 83 77 81 83 81 83 89 87 94 86 86 83 75 75 60 66 67 68 69 66 58 50 48
47 48 52 53 49 55 69 69 64 56 59 61 66 79 86 89 86 83 82 79 76 73 76 83 82 77 80 81 87 81 79 85 68 65 69 64 67 68 64 58 49 45 45
42 42 44 48 50 56 59 67 72 73 71 66 63 63 68 79 84 84 79 78 77 79 80 78 76 79 85 77 84 86 75 72 70 70 77 68 68 63 59 47 40 41 45
44 39 38 42 43 47 55 62 71 77 77 67 59 58 59 61 71 79 79 79 75 79 78 80 79 76 82 80 79 76 78 76 78 70 69 72 69 62 48 40 41 44 47
45 45 42 43 44 47 53 63 70 71 70 65 64 59 60 61 63 71 75 76 78 77 77 78 77 78 75 78 69 69 76 75 71 73 76 68 65 56 48 45 45 50 56
49 48 48 46 47 45 48 56 62 63 64 62 59 61 59 57 63 69 74 76 76 78 79 76 72 78 81 77 75 81 75 76 76 76 71 64 61 53 49 47 52 58 61
50 50 50 48 47 51 50 52 57 61 63 60 61 57 59 63 69 72 77 81 84 82 79 79 80 80 81 83 86 86 87 83 79 75 67 63 57 53 53 61 66 64 72
54 57 57 50 47 53 59 60 61 61 59 58 59 64 68 72 77 80 82 80 78 80 85 89 90 92 92 91 90 88 84 78 70 65 61 58 60 61 71 72 68 75 74
60 58 57 53 53 57 59 61 64 64 68 71 74 79 79 79 77 80 83 85 86 87 88 89 89 90 92 91 87 80 73 66 63 64 65 67 67 72 75 79 80 78 71
63 63 63 62 60 60 61 63 66 72 74 77 78 80 81 81 82 83 85 85 85 86 87 89 92 92 89 83 75 71 70 67 66 68 75 80 83 85 87 84 82 77 75
64 66 67 67 67 66 67 74 76 77 77 78 80 81 82 83 85 88 90 92 93 96 97 97 95 89 82 77 76 79 82 86 89 88 87 91 91 86 84 81 80 84 79
72 73 74 79 79 80 82 82 82 82 83 84 87 89 93 95 95 93 91 90 92 97 97 96 92 88 85 83 81 83 86 85 82 80 85 88 86 84 85 87 84 79 76
77 81 85 82 82 86 86 88 89 90 91 95 98 98 97 98 97 97 93 89 90 91 90 85 83 80 82 87 91 90 89 87 89 93 92 93 94 91 87 85 82 80 76
84 85 85 90 91 90 92 94 92 94 96 98 94 95 95 96 94 91 87 84 82 80 83 88 94 95 95 94 94 94 94 95 95 96 96 96 95 90 88 85 75 71 60
97 95 95 98 99 97 98 97 97 97 96 95 95 93 91 88 83 82 81 82 86 91 92 91 91 92 91 92 92 93 94 95 95 95 90 83 72 68 66 66 58 51 50
98 98 94 92 95 96 98 96 92 90 87 86 84 82 79 81 82 84 88 90 90 89 89 90 91 91 91 91 88 84 78 73 71 69 67 64 60 56 56 54 53 51 49
98 97 95 95 94 92 89 87 85 83 82 81 82 84 85 87 88 88 88 87 87 87 85 82 76 72 68 65 63 62 61 60 58 57 57 56 55 56 55 55 54 53 50
96 97 94 91 89 87 86 86 86 87 90 91 90 90 90 90 89 86 80 73 66 61 58 56 54 52 51 50 48 46 44 44 46 49 52 52 52 53 56 56 55 54 53
91 91 87 87 89 90 91 90 94 94 93 91 89 86 82 72 62 56 52 48 44 41 39 38 37 35 33 33 33 34 36 38 41 44 46 50 55 59 60 61 63 62 58
90 94 96 96 96 96 95 93 90 85 78 70 62 55 49 44 40 36 34 34 33 32 31 29 27 28 29 31 33 35 38 41 44 46 51 56 60 64 68 69 68 65 62
91 91 95 94 89 83 76 69 62 55 48 43 38 36 33 31 30 30 30 28 25 24 24 25 26 28 31 33 36 38 40 44 47 52 57 64 70 72 72 73 74 73 72
89 86 79 70 62 56 49 44 40 37 35 33 31 30 29 28 26 23 21 20 21 23 25 27 29 31 33 36 40 43 47 51 56 62 67 72 78 80 80 81 81 82 80
63 56 52 47 43 40 38 36 34 32 30 28 27 26 23 19 18 19 21 22 24 26 29 31 32 34 37 41 45 50 55 62 68 73 78 81 84 86 87 88 88 85 83
46 42 40 38 37 35 33 31 29 27 25 23 19 18 18 20 22 23 25 27 29 31 33 35 38 40 42 47 53 60 67 73 77 79 82 86 88 89 88 87 86 84 82

GFSGL_prec_cthk_084.txt.gz
RH
41 43 46 49 51 51 52 52 53 56 56 57 56 57 57 58 59 62 64 65 72 75 70 83 89 95 92 96 96 98 92 98 96 94 97 94 86 86 71 67 61 64 63
43 46 48 51 55 57 58 58 60 62 63 59 58 60 65 67 67 69 70 70 71 73 81 92 88 87 85 91 88 91 92 99 93 97 92 88 86 87 82 74 72 68 63
56 57 56 52 51 53 57 54 62 62 63 64 65 65 65 66 66 67 70 72 74 78 89 87 88 81 80 85 85 85 82 83 83 84 90 82 85 87 81 73 76 77 67
56 54 56 57 57 57 58 56 65 72 69 65 64 63 57 59 63 68 72 77 83 80 82 79 79 81 84 84 85 84 84 86 86 83 84 95 98 79 77 82 73 68 64
51 48 44 47 48 44 44 49 59 62 63 67 67 66 65 64 60 64 69 79 80 82 80 82 78 78 81 83 83 84 83 90 97 86 86 80 83 81 75 71 66 65 62
42 43 45 45 47 49 49 47 56 66 68 72 73 77 73 68 62 63 66 70 78 82 85 84 84 79 88 85 86 85 80 82 83 88 77 76 79 78 76 71 70 64 61
40 40 40 40 41 41 44 49 50 61 71 82 82 82 74 68 67 64 63 64 66 67 75 80 85 84 87 86 83 83 83 83 81 84 79 82 83 82 80 76 72 69 67
44 42 43 44 46 48 49 48 48 51 60 67 71 71 71 69 61 58 62 65 65 67 73 77 81 85 86 88 85 82 82 87 86 86 91 90 83 78 76 73 71 66 65
48 49 48 49 50 51 50 50 52 53 53 56 62 63 65 64 61 62 59 62 71 74 78 83 87 90 91 88 87 85 87 89 88 85 84 83 79 76 70 64 65 76 77
54 58 58 53 53 57 55 52 53 58 59 59 62 65 65 65 66 67 73 77 81 85 87 89 93 91 89 89 91 89 86 87 85 81 79 78 72 67 69 69 70 76 84
56 57 56 59 60 62 59 54 56 59 62 64 67 70 71 71 74 81 83 86 87 88 89 90 91 92 93 92 89 87 86 86 82 79 77 78 74 69 67 74 86 88 92
64 63 66 67 67 67 65 64 64 65 67 69 70 74 76 82 84 86 88 90 91 92 92 92 92 92 88 83 83 84 82 83 85 84 83 86 90 91 92 95 95 92 90
71 77 77 77 74 73 75 74 75 77 78 79 81 85 88 88 87 87 89 91 92 94 95 96 97 97 96 93 88 84 81 80 80 84 89 92 90 88 87 86 89 88 87
78 81 81 80 78 77 79 79 83 87 86 86 88 90 91 91 90 90 93 96 96 96 96 97 96 94 86 80 77 80 87 91 90 90 91 89 88 89 90 92 92 94 94
84 84 84 82 83 84 86 88 91 91 91 93 95 92 92 94 96 97 96 96 97 96 94 88 86 84 84 88 93 92 91 90 89 89 88 89 90 91 90 87 83 78 77
89 88 88 88 88 90 95 92 95 94 98 98 98 96 97 98 95 92 92 91 87 84 82 83 82 85 90 90 89 88 87 86 85 81 76 73 71 70 70 70 71 71 68
92 92 93 95 98 99 98 99 98 97 95 97 97 97 96 94 91 86 83 81 80 82 84 83 86 88 89 88 83 76 69 66 62 64 64 63 62 61 59 57 58 59 59
98 98 99 98 98 98 98 98 97 97 96 95 93 91 88 87 88 86 86 88 87 85 86 85 80 72 63 58 55 54 52 50 49 47 45 43 43 44 47 51 54 56 59
98 98 98 95 96 97 97 97 94 93 95 93 92 92 91 89 87 88 87 86 81 71 63 57 50 46 44 42 40 39 37 35 33 33 35 37 39 43 47 52 55 57 60
98 96 93 96 96 96 95 94 92 95 96 96 94 93 91 89 85 75 63 55 52 47 42 39 39 37 35 33 31 30 30 33 35 37 39 41 44 47 49 53 58 62 63
97 97 97 97 96 91 93 96 96 96 95 93 89 82 71 64 56 49 44 43 42 40 37 35 32 30 27 26 26 28 30 32 36 39 42 47 50 53 58 61 64 69 71
91 91 94 94 90 92 94 94 89 80 74 68 61 51 45 42 44 42 41 39 35 34 30 27 24 25 26 28 29 31 33 36 39 42 45 48 53 58 62 67 72 74 75
83 85 85 84 81 77 71 65 59 58 53 49 47 44 42 41 40 39 34 27 24 20 19 18 19 21 24 26 28 32 37 40 43 47 51 56 61 66 71 75 78 79 80
85 77 71 67 62 56 52 46 43 41 41 42 42 40 37 35 31 25 21 18 17 17 19 20 22 24 26 29 31 34 39 43 49 55 60 65 71 75 79 81 83 85 86
61 57 53 52 48 45 43 41 39 38 36 35 34 30 25 22 19 17 17 18 20 21 23 25 27 28 30 33 36 41 47 54 60 64 69 73 76 80 82 84 85 86 87
51 50 47 45 43 41 39 37 36 34 31 27 24 20 17 17 18 19 21 23 24 26 27 29 30 32 35 39 44 51 58 63 68 71 74 78 81 84 85 87 87 87 86